Wetterdaten: Montag, 01.06.2015
Datum Zeit Temp. Aussen +5cm Feuchte Auss BlattFeu 1 Luftdruck Regen Sonnenschein Regendauer Solar Windben
01.06.2015 00:00 15,1 C 13,3 C 94 % 15 lf 1009,3 hPa 0,0 l/m 0 min 2 min 0 W/m 20,9 km/h (4 Bft)
01.06.2015 00:02 15,1 C 13,3 C 94 % 15 lf 1009,4 hPa 0,0 l/m 0 min 2 min 0 W/m 37,7 km/h (5 Bft)
01.06.2015 00:05 15,1 C 13,3 C 94 % 15 lf 1009,6 hPa 0,0 l/m 0 min 2 min 0 W/m 25,1 km/h (4 Bft)
01.06.2015 00:06 15,1 C 13,3 C 94 % 15 lf 1009,6 hPa 0,0 l/m 0 min 1 min 0 W/m 25,1 km/h (4 Bft)
01.06.2015 00:08 15,0 C 12,8 C 94 % 15 lf 1009,5 hPa 0,2 l/m 0 min 2 min 0 W/m 29,3 km/h (5 Bft)
01.06.2015 00:10 15,0 C 12,8 C 94 % 15 lf 1009,6 hPa 0,0 l/m 0 min 2 min 0 W/m 25,1 km/h (4 Bft)
01.06.2015 00:12 14,9 C 12,8 C 95 % 15 lf 1009,6 hPa 0,0 l/m 0 min 2 min 0 W/m 25,1 km/h (4 Bft)
01.06.2015 00:14 14,9 C 12,8 C 95 % 15 lf 1009,7 hPa 0,0 l/m 0 min 2 min 0 W/m 23,0 km/h (4 Bft)
01.06.2015 00:16 14,9 C 12,8 C 95 % 15 lf 1009,7 hPa 0,0 l/m 0 min 2 min 0 W/m 25,1 km/h (4 Bft)
01.06.2015 00:18 14,8 C 12,8 C 95 % 15 lf 1009,7 hPa 0,0 l/m 0 min 2 min 0 W/m 14,6 km/h (3 Bft)
01.06.2015 00:20 14,8 C 12,8 C 95 % 15 lf 1009,8 hPa 0,0 l/m 0 min 2 min 0 W/m 14,6 km/h (3 Bft)
01.06.2015 00:22 14,8 C 12,8 C 95 % 15 lf 1009,9 hPa 0,0 l/m 0 min 0 min 0 W/m 18,8 km/h (3 Bft)
01.06.2015 00:24 14,7 C 12,8 C 95 % 15 lf 1009,9 hPa 0,0 l/m 0 min 0 min 0 W/m 20,9 km/h (4 Bft)
01.06.2015 00:26 14,7 C 12,8 C 95 % 15 lf 1010,0 hPa 0,0 l/m 0 min 0 min 0 W/m 27,2 km/h (4 Bft)
01.06.2015 00:28 14,6 C 12,8 C 95 % 15 lf 1010,1 hPa 0,0 l/m 0 min 0 min 0 W/m 25,1 km/h (4 Bft)
01.06.2015 00:30 14,6 C 12,8 C 95 % 15 lf 1010,0 hPa 0,0 l/m 0 min 2 min 0 W/m 20,9 km/h (4 Bft)
01.06.2015 00:32 14,5 C 12,8 C 95 % 15 lf 1010,0 hPa 0,0 l/m 0 min 2 min 0 W/m 25,1 km/h (4 Bft)
01.06.2015 00:34 14,4 C 12,8 C 95 % 15 lf 1010,1 hPa 0,0 l/m 0 min 2 min 0 W/m 29,3 km/h (5 Bft)
01.06.2015 00:36 14,4 C 12,8 C 95 % 15 lf 1010,0 hPa 0,0 l/m 0 min 2 min 0 W/m 33,5 km/h (5 Bft)
01.06.2015 00:38 14,2 C 12,8 C 94 % 15 lf 1010,1 hPa 0,0 l/m 0 min 2 min 0 W/m 33,5 km/h (5 Bft)
01.06.2015 00:40 14,2 C 12,8 C 95 % 15 lf 1010,2 hPa 0,0 l/m 0 min 2 min 0 W/m 41,8 km/h (6 Bft)
01.06.2015 00:42 14,2 C 12,2 C 95 % 15 lf 1010,2 hPa 0,2 l/m 0 min 2 min 0 W/m 20,9 km/h (4 Bft)
01.06.2015 00:44 14,2 C 12,2 C 95 % 15 lf 1010,2 hPa 0,0 l/m 0 min 2 min 0 W/m 31,4 km/h (5 Bft)
01.06.2015 00:46 14,1 C 12,2 C 95 % 15 lf 1010,2 hPa 0,0 l/m 0 min 2 min 0 W/m 25,1 km/h (4 Bft)
01.06.2015 00:48 14,1 C 12,2 C 95 % 15 lf 1010,2 hPa 0,0 l/m 0 min 2 min 0 W/m 27,2 km/h (4 Bft)
01.06.2015 00:50 14,0 C 12,2 C 94 % 15 lf 1010,3 hPa 0,2 l/m 0 min 2 min 0 W/m 25,1 km/h (4 Bft)
01.06.2015 00:52 13,9 C 12,2 C 94 % 15 lf 1010,3 hPa 0,0 l/m 0 min 2 min 0 W/m 27,2 km/h (4 Bft)
01.06.2015 00:54 13,9 C 12,2 C 95 % 15 lf 1010,3 hPa 0,0 l/m 0 min 2 min 0 W/m 35,6 km/h (5 Bft)
01.06.2015 00:56 13,9 C 12,2 C 95 % 15 lf 1010,4 hPa 0,0 l/m 0 min 2 min 0 W/m 29,3 km/h (5 Bft)
01.06.2015 00:58 13,8 C 12,2 C 95 % 15 lf 1010,4 hPa 0,0 l/m 0 min 2 min 0 W/m 29,3 km/h (5 Bft)
01.06.2015 01:00 13,8 C 12,2 C 95 % 15 lf 1010,4 hPa 0,0 l/m 0 min 2 min 0 W/m 25,1 km/h (4 Bft)
01.06.2015 01:02 13,7 C 12,2 C 95 % 15 lf 1010,4 hPa 0,2 l/m 0 min 2 min 0 W/m 25,1 km/h (4 Bft)
01.06.2015 01:04 13,6 C 12,2 C 95 % 15 lf 1010,4 hPa 0,0 l/m 0 min 2 min 0 W/m 23,0 km/h (4 Bft)
01.06.2015 01:06 13,6 C 12,2 C 94 % 15 lf 1010,4 hPa 0,0 l/m 0 min 2 min 0 W/m 25,1 km/h (4 Bft)
01.06.2015 01:08 13,5 C 12,2 C 94 % 15 lf 1010,4 hPa 0,0 l/m 0 min 2 min 0 W/m 29,3 km/h (5 Bft)
01.06.2015 01:10 13,5 C 12,2 C 94 % 15 lf 1010,5 hPa 0,0 l/m 0 min 2 min 0 W/m 23,0 km/h (4 Bft)
01.06.2015 01:12 13,4 C 12,2 C 94 % 15 lf 1010,5 hPa 0,0 l/m 0 min 2 min 0 W/m 27,2 km/h (4 Bft)
01.06.2015 01:14 13,4 C 12,2 C 95 % 15 lf 1010,5 hPa 0,0 l/m 0 min 2 min 0 W/m 23,0 km/h (4 Bft)
01.06.2015 01:16 13,3 C 12,2 C 95 % 15 lf 1010,5 hPa 0,0 l/m 0 min 2 min 0 W/m 31,4 km/h (5 Bft)
01.06.2015 01:18 13,3 C 12,2 C 95 % 15 lf 1010,5 hPa 0,0 l/m 0 min 2 min 0 W/m 20,9 km/h (4 Bft)
01.06.2015 01:20 13,3 C 12,2 C 95 % 15 lf 1010,6 hPa 0,0 l/m 0 min 2 min 0 W/m 23,0 km/h (4 Bft)
01.06.2015 01:22 13,3 C 12,2 C 95 % 15 lf 1010,5 hPa 0,0 l/m 0 min 0 min 0 W/m 18,8 km/h (3 Bft)
01.06.2015 01:24 13,3 C 12,2 C 95 % 15 lf 1010,5 hPa 0,0 l/m 0 min 0 min 0 W/m 18,8 km/h (3 Bft)
01.06.2015 01:26 13,2 C 11,7 C 94 % 15 lf 1010,5 hPa 0,0 l/m 0 min 0 min 0 W/m 29,3 km/h (5 Bft)
01.06.2015 01:28 13,2 C 11,7 C 94 % 15 lf 1010,5 hPa 0,0 l/m 0 min 2 min 0 W/m 27,2 km/h (4 Bft)
01.06.2015 01:30 13,2 C 11,7 C 95 % 15 lf 1010,6 hPa 0,0 l/m 0 min 2 min 0 W/m 23,0 km/h (4 Bft)
01.06.2015 01:32 13,2 C 11,7 C 95 % 15 lf 1010,7 hPa 0,0 l/m 0 min 0 min 0 W/m 27,2 km/h (4 Bft)
01.06.2015 01:34 13,2 C 11,7 C 95 % 15 lf 1010,7 hPa 0,0 l/m 0 min 0 min 0 W/m 29,3 km/h (5 Bft)
01.06.2015 01:36 13,2 C 11,7 C 95 % 15 lf 1010,7 hPa 0,0 l/m 0 min 0 min 0 W/m 31,4 km/h (5 Bft)
01.06.2015 01:38 13,1 C 11,7 C 95 % 15 lf 1010,8 hPa 0,0 l/m 0 min 2 min 0 W/m 29,3 km/h (5 Bft)
01.06.2015 01:40 13,1 C 11,7 C 95 % 15 lf 1010,8 hPa 0,0 l/m 0 min 2 min 0 W/m 27,2 km/h (4 Bft)
01.06.2015 01:42 13,1 C 11,7 C 95 % 15 lf 1010,8 hPa 0,0 l/m 0 min 2 min 0 W/m 20,9 km/h (4 Bft)
01.06.2015 01:44 13,1 C 11,7 C 95 % 15 lf 1011,2 hPa 0,0 l/m 0 min 2 min 0 W/m 29,3 km/h (5 Bft)
01.06.2015 01:46 13,1 C 11,7 C 95 % 15 lf 1011,2 hPa 0,0 l/m 0 min 2 min 0 W/m 31,4 km/h (5 Bft)
01.06.2015 01:48 13,0 C 11,7 C 95 % 15 lf 1011,2 hPa 0,0 l/m 0 min 2 min 0 W/m 18,8 km/h (3 Bft)
01.06.2015 01:50 12,9 C 11,7 C 95 % 15 lf 1011,2 hPa 0,0 l/m 0 min 2 min 0 W/m 16,7 km/h (3 Bft)
01.06.2015 01:52 12,8 C 11,7 C 94 % 15 lf 1011,3 hPa 0,0 l/m 0 min 2 min 0 W/m 16,7 km/h (3 Bft)
01.06.2015 01:54 12,8 C 11,7 C 94 % 15 lf 1011,4 hPa 0,2 l/m 0 min 2 min 0 W/m 20,9 km/h (4 Bft)
01.06.2015 01:56 12,7 C 11,7 C 94 % 15 lf 1011,5 hPa 0,0 l/m 0 min 2 min 0 W/m 16,7 km/h (3 Bft)
01.06.2015 01:58 12,6 C 11,1 C 94 % 15 lf 1011,5 hPa 0,0 l/m 0 min 2 min 0 W/m 23,0 km/h (4 Bft)
01.06.2015 02:00 12,5 C 11,1 C 94 % 15 lf 1011,6 hPa 0,0 l/m 0 min 2 min 0 W/m 25,1 km/h (4 Bft)
01.06.2015 02:02 12,4 C 11,1 C 94 % 15 lf 1011,8 hPa 0,0 l/m 0 min 0 min 0 W/m 25,1 km/h (4 Bft)
01.06.2015 02:04 12,3 C 11,1 C 94 % 15 lf 1011,8 hPa 0,0 l/m 0 min 2 min 0 W/m 18,8 km/h (3 Bft)
01.06.2015 02:06 12,2 C 11,1 C 94 % 15 lf 1011,9 hPa 0,0 l/m 0 min 0 min 0 W/m 20,9 km/h (4 Bft)
01.06.2015 02:08 12,1 C 11,1 C 94 % 15 lf 1011,9 hPa 0,0 l/m 0 min 0 min 0 W/m 18,8 km/h (3 Bft)
01.06.2015 02:10 12,1 C 11,1 C 94 % 15 lf 1011,9 hPa 0,0 l/m 0 min 0 min 0 W/m 12,6 km/h (3 Bft)
01.06.2015 02:12 12,0 C 11,1 C 94 % 15 lf 1011,9 hPa 0,0 l/m 0 min 0 min 0 W/m 12,6 km/h (3 Bft)
01.06.2015 02:14 11,9 C 11,1 C 94 % 15 lf 1011,9 hPa 0,0 l/m 0 min 0 min 0 W/m 10,5 km/h (2 Bft)
01.06.2015 02:16 11,9 C 11,1 C 94 % 15 lf 1012,0 hPa 0,0 l/m 0 min 0 min 0 W/m 12,6 km/h (3 Bft)
01.06.2015 02:18 11,8 C 11,1 C 94 % 15 lf 1011,9 hPa 0,0 l/m 0 min 0 min 0 W/m 12,6 km/h (3 Bft)
01.06.2015 02:20 11,8 C 11,1 C 94 % 15 lf 1012,0 hPa 0,0 l/m 0 min 2 min 0 W/m 14,6 km/h (3 Bft)
01.06.2015 02:22 11,8 C 11,1 C 94 % 15 lf 1012,0 hPa 0,0 l/m 0 min 2 min 0 W/m 16,7 km/h (3 Bft)
01.06.2015 02:24 11,7 C 11,1 C 94 % 15 lf 1012,2 hPa 0,0 l/m 0 min 2 min 0 W/m 16,7 km/h (3 Bft)
01.06.2015 02:26 11,7 C 11,1 C 94 % 15 lf 1012,2 hPa 0,0 l/m 0 min 0 min 0 W/m 10,5 km/h (2 Bft)
01.06.2015 02:28 11,6 C 11,1 C 94 % 15 lf 1012,2 hPa 0,0 l/m 0 min 0 min 0 W/m 10,5 km/h (2 Bft)
01.06.2015 02:30 11,6 C 11,1 C 93 % 15 lf 1012,2 hPa 0,0 l/m 0 min 0 min 0 W/m 10,5 km/h (2 Bft)
01.06.2015 02:32 11,5 C 10,6 C 93 % 15 lf 1012,2 hPa 0,0 l/m 0 min 0 min 0 W/m 14,6 km/h (3 Bft)
01.06.2015 02:34 11,5 C 10,6 C 93 % 15 lf 1012,2 hPa 0,0 l/m 0 min 0 min 0 W/m 14,6 km/h (3 Bft)
01.06.2015 02:36 11,4 C 10,6 C 93 % 15 lf 1012,2 hPa 0,0 l/m 0 min 0 min 0 W/m 16,7 km/h (3 Bft)
01.06.2015 02:38 11,4 C 10,6 C 93 % 15 lf 1012,3 hPa 0,0 l/m 0 min 2 min 0 W/m 12,6 km/h (3 Bft)
01.06.2015 02:40 11,3 C 10,6 C 93 % 15 lf 1012,3 hPa 0,0 l/m 0 min 2 min 0 W/m 10,5 km/h (2 Bft)
01.06.2015 02:42 11,3 C 10,6 C 93 % 15 lf 1012,3 hPa 0,0 l/m 0 min 2 min 0 W/m 10,5 km/h (2 Bft)
01.06.2015 02:44 11,3 C 10,6 C 93 % 15 lf 1012,3 hPa 0,0 l/m 0 min 2 min 0 W/m 12,6 km/h (3 Bft)
01.06.2015 02:46 11,2 C 10,6 C 93 % 15 lf 1012,4 hPa 0,0 l/m 0 min 0 min 0 W/m 8,4 km/h (2 Bft)
01.06.2015 02:48 11,2 C 10,6 C 93 % 15 lf 1012,5 hPa 0,0 l/m 0 min 0 min 0 W/m 8,4 km/h (2 Bft)
01.06.2015 02:50 11,2 C 10,6 C 93 % 15 lf 1012,5 hPa 0,0 l/m 0 min 2 min 0 W/m 10,5 km/h (2 Bft)
01.06.2015 02:52 11,2 C 10,6 C 93 % 15 lf 1012,5 hPa 0,0 l/m 0 min 2 min 0 W/m 6,3 km/h (2 Bft)
01.06.2015 02:54 11,2 C 10,6 C 93 % 15 lf 1012,5 hPa 0,0 l/m 0 min 2 min 0 W/m 10,5 km/h (2 Bft)
01.06.2015 02:56 11,1 C 10,6 C 93 % 15 lf 1012,5 hPa 0,0 l/m 0 min 2 min 0 W/m 6,3 km/h (2 Bft)
01.06.2015 02:58 11,1 C 10,6 C 93 % 15 lf 1012,6 hPa 0,0 l/m 0 min 2 min 0 W/m 10,5 km/h (2 Bft)
01.06.2015 03:00 11,1 C 10,6 C 93 % 15 lf 1012,6 hPa 0,0 l/m 0 min 2 min 0 W/m 8,4 km/h (2 Bft)
01.06.2015 03:02 11,1 C 10,6 C 93 % 15 lf 1012,6 hPa 0,0 l/m 0 min 2 min 0 W/m 8,4 km/h (2 Bft)
01.06.2015 03:04 11,1 C 10,6 C 93 % 15 lf 1012,7 hPa 0,0 l/m 0 min 2 min 0 W/m 8,4 km/h (2 Bft)
01.06.2015 03:06 11,0 C 10,6 C 94 % 15 lf 1012,7 hPa 0,0 l/m 0 min 0 min 0 W/m 6,3 km/h (2 Bft)
01.06.2015 03:08 11,0 C 10,6 C 94 % 15 lf 1012,6 hPa 0,0 l/m 0 min 0 min 0 W/m 6,3 km/h (2 Bft)
01.06.2015 03:10 11,0 C 10,6 C 94 % 15 lf 1012,6 hPa 0,0 l/m 0 min 0 min 0 W/m 6,3 km/h (2 Bft)
01.06.2015 03:12 10,9 C 10,6 C 94 % 15 lf 1012,7 hPa 0,0 l/m 0 min 0 min 0 W/m 4,2 km/h (1 Bft)
01.06.2015 03:14 10,9 C 10,6 C 94 % 15 lf 1012,6 hPa 0,0 l/m 0 min 0 min 0 W/m 6,3 km/h (2 Bft)
01.06.2015 03:16 10,9 C 10,6 C 94 % 15 lf 1012,6 hPa 0,2 l/m 0 min 0 min 0 W/m 4,2 km/h (1 Bft)
01.06.2015 03:18 10,9 C 10,6 C 94 % 15 lf 1012,6 hPa 0,0 l/m 0 min 0 min 0 W/m 6,3 km/h (2 Bft)
01.06.2015 03:20 10,9 C 10,6 C 94 % 15 lf 1012,7 hPa 0,0 l/m 0 min 0 min 0 W/m 4,2 km/h (1 Bft)
01.06.2015 03:22 10,9 C 10,6 C 94 % 15 lf 1012,7 hPa 0,0 l/m 0 min 0 min 0 W/m 8,4 km/h (2 Bft)
01.06.2015 03:24 10,9 C 10,6 C 94 % 15 lf 1012,8 hPa 0,0 l/m 0 min 0 min 0 W/m 4,2 km/h (1 Bft)
01.06.2015 03:26 10,9 C 10,6 C 94 % 15 lf 1012,8 hPa 0,0 l/m 0 min 0 min 0 W/m 2,1 km/h (1 Bft)
01.06.2015 03:28 10,9 C 10,6 C 94 % 15 lf 1012,9 hPa 0,0 l/m 0 min 0 min 0 W/m 6,3 km/h (2 Bft)
01.06.2015 03:30 10,8 C 10,6 C 94 % 15 lf 1012,9 hPa 0,0 l/m 0 min 0 min 0 W/m 6,3 km/h (2 Bft)
01.06.2015 03:32 10,8 C 10,6 C 94 % 15 lf 1013,0 hPa 0,0 l/m 0 min 0 min 0 W/m 6,3 km/h (2 Bft)
01.06.2015 03:34 10,8 C 10,6 C 94 % 15 lf 1013,1 hPa 0,0 l/m 0 min 0 min 0 W/m 6,3 km/h (2 Bft)
01.06.2015 03:36 10,8 C 10,6 C 94 % 15 lf 1013,0 hPa 0,0 l/m 0 min 0 min 0 W/m 6,3 km/h (2 Bft)
01.06.2015 03:38 10,8 C 10,6 C 94 % 15 lf 1013,1 hPa 0,0 l/m 0 min 0 min 0 W/m 4,2 km/h (1 Bft)
01.06.2015 03:40 10,8 C 10,6 C 94 % 15 lf 1013,1 hPa 0,0 l/m 0 min 0 min 0 W/m 8,4 km/h (2 Bft)
01.06.2015 03:42 10,8 C 10,6 C 94 % 15 lf 1013,1 hPa 0,0 l/m 0 min 0 min 0 W/m 4,2 km/h (1 Bft)
01.06.2015 03:44 10,8 C 10,6 C 94 % 15 lf 1013,1 hPa 0,0 l/m 0 min 0 min 0 W/m 4,2 km/h (1 Bft)
01.06.2015 03:46 10,7 C 10,6 C 94 % 15 lf 1013,0 hPa 0,0 l/m 0 min 0 min 0 W/m 4,2 km/h (1 Bft)
01.06.2015 03:48 10,7 C 10,6 C 94 % 15 lf 1013,1 hPa 0,0 l/m 0 min 0 min 0 W/m 4,2 km/h (1 Bft)
01.06.2015 03:50 10,7 C 10,6 C 94 % 15 lf 1013,1 hPa 0,0 l/m 0 min 0 min 0 W/m 8,4 km/h (2 Bft)
01.06.2015 03:52 10,7 C 10,6 C 94 % 15 lf 1013,2 hPa 0,0 l/m 0 min 0 min 0 W/m 4,2 km/h (1 Bft)
01.06.2015 03:54 10,7 C 10,6 C 94 % 15 lf 1013,2 hPa 0,0 l/m 0 min 0 min 0 W/m 4,2 km/h (1 Bft)
01.06.2015 03:56 10,7 C 10,6 C 94 % 15 lf 1013,2 hPa 0,0 l/m 0 min 0 min 0 W/m 6,3 km/h (2 Bft)
01.06.2015 03:58 10,7 C 10,6 C 94 % 15 lf 1013,1 hPa 0,0 l/m 0 min 0 min 0 W/m 4,2 km/h (1 Bft)
01.06.2015 04:00 10,7 C 10,6 C 94 % 15 lf 1013,1 hPa 0,0 l/m 0 min 0 min 0 W/m 2,1 km/h (1 Bft)
01.06.2015 04:02 10,7 C 10,6 C 94 % 15 lf 1013,1 hPa 0,0 l/m 0 min 0 min 0 W/m 4,2 km/h (1 Bft)
01.06.2015 04:04 10,7 C 10,6 C 94 % 15 lf 1013,1 hPa 0,0 l/m 0 min 0 min 0 W/m 4,2 km/h (1 Bft)
01.06.2015 04:06 10,6 C 10,6 C 94 % 15 lf 1013,3 hPa 0,0 l/m 0 min 0 min 0 W/m 4,2 km/h (1 Bft)
01.06.2015 04:08 10,6 C 10,6 C 94 % 15 lf 1013,2 hPa 0,0 l/m 0 min 0 min 0 W/m 4,2 km/h (1 Bft)
01.06.2015 04:10 10,6 C 10,0 C 94 % 15 lf 1013,1 hPa 0,0 l/m 0 min 0 min 0 W/m 2,1 km/h (1 Bft)
01.06.2015 04:12 10,6 C 10,0 C 94 % 15 lf 1013,2 hPa 0,0 l/m 0 min 0 min 0 W/m 6,3 km/h (2 Bft)
01.06.2015 04:14 10,6 C 10,0 C 94 % 15 lf 1013,2 hPa 0,0 l/m 0 min 0 min 0 W/m 4,2 km/h (1 Bft)
01.06.2015 04:16 10,6 C 10,0 C 94 % 15 lf 1013,3 hPa 0,0 l/m 0 min 0 min 0 W/m 4,2 km/h (1 Bft)
01.06.2015 04:18 10,6 C 10,0 C 94 % 15 lf 1013,3 hPa 0,0 l/m 0 min 0 min 0 W/m 4,2 km/h (1 Bft)
01.06.2015 04:20 10,6 C 10,0 C 94 % 15 lf 1013,4 hPa 0,0 l/m 0 min 0 min 0 W/m 4,2 km/h (1 Bft)
01.06.2015 04:22 10,5 C 10,0 C 94 % 15 lf 1013,4 hPa 0,0 l/m 0 min 0 min 0 W/m 2,1 km/h (1 Bft)
01.06.2015 04:24 10,5 C 10,0 C 94 % 15 lf 1013,3 hPa 0,0 l/m 0 min 0 min 0 W/m 2,1 km/h (1 Bft)
01.06.2015 04:26 10,5 C 10,0 C 94 % 15 lf 1013,4 hPa 0,0 l/m 0 min 0 min 0 W/m 4,2 km/h (1 Bft)
01.06.2015 04:28 10,4 C 10,0 C 94 % 15 lf 1013,3 hPa 0,0 l/m 0 min 0 min 0 W/m 4,2 km/h (1 Bft)
01.06.2015 04:30 10,4 C 10,0 C 94 % 15 lf 1013,4 hPa 0,0 l/m 0 min 0 min 0 W/m 6,3 km/h (2 Bft)
01.06.2015 04:32 10,4 C 10,0 C 94 % 15 lf 1013,3 hPa 0,0 l/m 0 min 0 min 0 W/m 4,2 km/h (1 Bft)
01.06.2015 04:34 10,4 C 10,0 C 94 % 15 lf 1013,4 hPa 0,0 l/m 0 min 0 min 0 W/m 4,2 km/h (1 Bft)
01.06.2015 04:36 10,4 C 10,0 C 94 % 15 lf 1013,4 hPa 0,0 l/m 0 min 0 min 0 W/m 2,1 km/h (1 Bft)
01.06.2015 04:38 10,4 C 10,0 C 94 % 15 lf 1013,4 hPa 0,0 l/m 0 min 0 min 0 W/m 4,2 km/h (1 Bft)
01.06.2015 04:40 10,3 C 9,4 C 94 % 15 lf 1013,4 hPa 0,0 l/m 0 min 0 min 0 W/m 4,2 km/h (1 Bft)
01.06.2015 04:42 10,3 C 9,4 C 94 % 15 lf 1013,4 hPa 0,0 l/m 0 min 0 min 0 W/m 4,2 km/h (1 Bft)
01.06.2015 04:44 10,3 C 9,4 C 94 % 15 lf 1013,5 hPa 0,0 l/m 0 min 0 min 0 W/m 4,2 km/h (1 Bft)
01.06.2015 04:46 10,3 C 9,4 C 94 % 15 lf 1013,4 hPa 0,0 l/m 0 min 0 min 0 W/m 2,1 km/h (1 Bft)
01.06.2015 04:48 10,2 C 9,4 C 94 % 15 lf 1013,5 hPa 0,0 l/m 0 min 0 min 0 W/m 4,2 km/h (1 Bft)
01.06.2015 04:50 10,2 C 9,4 C 94 % 15 lf 1013,5 hPa 0,0 l/m 0 min 0 min 0 W/m 2,1 km/h (1 Bft)
01.06.2015 04:52 10,2 C 9,4 C 94 % 15 lf 1013,6 hPa 0,0 l/m 0 min 0 min 0 W/m 2,1 km/h (1 Bft)
01.06.2015 04:54 10,1 C 9,4 C 94 % 15 lf 1013,7 hPa 0,0 l/m 0 min 0 min 0 W/m 4,2 km/h (1 Bft)
01.06.2015 04:56 10,1 C 9,4 C 94 % 15 lf 1013,8 hPa 0,0 l/m 0 min 0 min 0 W/m 4,2 km/h (1 Bft)
01.06.2015 04:58 10,1 C 9,4 C 94 % 15 lf 1013,7 hPa 0,0 l/m 0 min 0 min 0 W/m 4,2 km/h (1 Bft)
01.06.2015 05:00 10,0 C 9,4 C 94 % 15 lf 1013,7 hPa 0,0 l/m 0 min 0 min 0 W/m 4,2 km/h (1 Bft)
01.06.2015 05:02 10,0 C 9,4 C 94 % 15 lf 1013,8 hPa 0,0 l/m 0 min 0 min 0 W/m 4,2 km/h (1 Bft)
01.06.2015 05:04 9,9 C 9,4 C 94 % 15 lf 1013,8 hPa 0,0 l/m 0 min 0 min 0 W/m 2,1 km/h (1 Bft)
01.06.2015 05:06 9,9 C 9,4 C 94 % 15 lf 1013,8 hPa 0,0 l/m 0 min 0 min 0 W/m 4,2 km/h (1 Bft)
01.06.2015 05:08 9,9 C 9,4 C 94 % 15 lf 1013,9 hPa 0,0 l/m 0 min 0 min 0 W/m 4,2 km/h (1 Bft)
01.06.2015 05:10 9,9 C 9,4 C 94 % 15 lf 1013,9 hPa 0,0 l/m 0 min 0 min 0 W/m 4,2 km/h (1 Bft)
01.06.2015 05:12 9,8 C 9,4 C 94 % 15 lf 1014,0 hPa 0,0 l/m 0 min 0 min 0 W/m 4,2 km/h (1 Bft)
01.06.2015 05:14 9,8 C 9,4 C 94 % 15 lf 1014,0 hPa 0,0 l/m 0 min 0 min 0 W/m 4,2 km/h (1 Bft)
01.06.2015 05:16 9,8 C 9,4 C 94 % 15 lf 1014,0 hPa 0,0 l/m 0 min 0 min 0 W/m 6,3 km/h (2 Bft)
01.06.2015 05:18 9,8 C 9,4 C 94 % 15 lf 1014,0 hPa 0,0 l/m 0 min 0 min 0 W/m 6,3 km/h (2 Bft)
01.06.2015 05:20 9,7 C 9,4 C 94 % 15 lf 1014,0 hPa 0,0 l/m 0 min 0 min 0 W/m 4,2 km/h (1 Bft)
01.06.2015 05:22 9,7 C 9,4 C 94 % 15 lf 1014,1 hPa 0,0 l/m 0 min 0 min 0 W/m 4,2 km/h (1 Bft)
01.06.2015 05:24 9,7 C 9,4 C 94 % 15 lf 1014,1 hPa 0,0 l/m 0 min 0 min 0 W/m 6,3 km/h (2 Bft)
01.06.2015 05:26 9,7 C 9,4 C 94 % 15 lf 1014,2 hPa 0,0 l/m 0 min 0 min 4 W/m 4,2 km/h (1 Bft)
01.06.2015 05:28 9,7 C 9,4 C 94 % 15 lf 1014,2 hPa 0,0 l/m 0 min 0 min 5 W/m 4,2 km/h (1 Bft)
01.06.2015 05:30 9,6 C 9,4 C 94 % 15 lf 1014,2 hPa 0,0 l/m 0 min 0 min 5 W/m 2,1 km/h (1 Bft)
01.06.2015 05:32 9,6 C 9,4 C 94 % 15 lf 1014,2 hPa 0,0 l/m 0 min 0 min 7 W/m 2,1 km/h (1 Bft)
01.06.2015 05:34 9,6 C 9,4 C 94 % 15 lf 1014,3 hPa 0,0 l/m 0 min 0 min 7 W/m 2,1 km/h (1 Bft)
01.06.2015 05:36 9,6 C 9,4 C 94 % 15 lf 1014,2 hPa 0,0 l/m 0 min 0 min 7 W/m 2,1 km/h (1 Bft)
01.06.2015 05:38 9,6 C 9,4 C 94 % 15 lf 1014,3 hPa 0,0 l/m 0 min 0 min 9 W/m 6,3 km/h (2 Bft)
01.06.2015 05:40 9,6 C 9,4 C 94 % 15 lf 1014,3 hPa 0,0 l/m 0 min 0 min 9 W/m 4,2 km/h (1 Bft)
01.06.2015 05:42 9,5 C 9,4 C 94 % 15 lf 1014,4 hPa 0,0 l/m 0 min 0 min 11 W/m 8,4 km/h (2 Bft)
01.06.2015 05:44 9,5 C 9,4 C 94 % 15 lf 1014,3 hPa 0,0 l/m 0 min 0 min 12 W/m 4,2 km/h (1 Bft)
01.06.2015 05:46 9,5 C 9,4 C 94 % 15 lf 1014,3 hPa 0,0 l/m 0 min 0 min 13 W/m 4,2 km/h (1 Bft)
01.06.2015 05:48 9,5 C 9,4 C 94 % 15 lf 1014,3 hPa 0,0 l/m 0 min 0 min 14 W/m 4,2 km/h (1 Bft)
01.06.2015 05:50 9,5 C 9,4 C 94 % 15 lf 1014,3 hPa 0,0 l/m 0 min 0 min 16 W/m 4,2 km/h (1 Bft)
01.06.2015 05:52 9,5 C 9,4 C 94 % 15 lf 1014,3 hPa 0,0 l/m 0 min 0 min 18 W/m 4,2 km/h (1 Bft)
01.06.2015 05:54 9,5 C 9,4 C 94 % 15 lf 1014,4 hPa 0,0 l/m 0 min 0 min 21 W/m 2,1 km/h (1 Bft)
01.06.2015 05:56 9,5 C 9,4 C 94 % 15 lf 1014,4 hPa 0,0 l/m 0 min 0 min 26 W/m 4,2 km/h (1 Bft)
01.06.2015 05:58 9,5 C 10,0 C 94 % 15 lf 1014,4 hPa 0,0 l/m 0 min 0 min 26 W/m 4,2 km/h (1 Bft)
01.06.2015 06:00 9,6 C 10,0 C 94 % 15 lf 1014,5 hPa 0,0 l/m 0 min 0 min 30 W/m 6,3 km/h (2 Bft)
01.06.2015 06:02 9,6 C 10,0 C 94 % 15 lf 1014,5 hPa 0,0 l/m 0 min 0 min 32 W/m 4,2 km/h (1 Bft)
01.06.2015 06:06 9,6 C 10,0 C 95 % 15 lf 1014,4 hPa 0,0 l/m 0 min 0 min 38 W/m 6,3 km/h (2 Bft)
01.06.2015 06:08 9,6 C 10,0 C 95 % 15 lf 1014,5 hPa 0,0 l/m 2 min 0 min 42 W/m 4,2 km/h (1 Bft)
01.06.2015 06:10 9,6 C 10,0 C 95 % 15 lf 1014,5 hPa 0,0 l/m 0 min 0 min 42 W/m 2,1 km/h (1 Bft)
01.06.2015 06:12 9,6 C 10,0 C 95 % 15 lf 1014,5 hPa 0,0 l/m 0 min 0 min 34 W/m 4,2 km/h (1 Bft)
01.06.2015 06:14 9,6 C 10,0 C 95 % 15 lf 1014,6 hPa 0,0 l/m 0 min 0 min 30 W/m 6,3 km/h (2 Bft)
01.06.2015 06:16 9,7 C 10,0 C 95 % 15 lf 1014,6 hPa 0,0 l/m 0 min 0 min 30 W/m 4,2 km/h (1 Bft)
01.06.2015 06:18 9,7 C 10,0 C 95 % 15 lf 1014,6 hPa 0,0 l/m 0 min 0 min 31 W/m 6,3 km/h (2 Bft)
01.06.2015 06:20 9,7 C 10,0 C 95 % 15 lf 1014,6 hPa 0,0 l/m 0 min 0 min 33 W/m 6,3 km/h (2 Bft)
01.06.2015 06:22 9,7 C 10,0 C 95 % 15 lf 1014,6 hPa 0,0 l/m 0 min 0 min 35 W/m 6,3 km/h (2 Bft)
01.06.2015 06:24 9,7 C 10,0 C 95 % 15 lf 1014,6 hPa 0,0 l/m 0 min 0 min 37 W/m 4,2 km/h (1 Bft)
01.06.2015 06:26 9,8 C 10,0 C 95 % 15 lf 1014,6 hPa 0,0 l/m 0 min 0 min 41 W/m 6,3 km/h (2 Bft)
01.06.2015 06:28 9,8 C 10,0 C 95 % 15 lf 1014,6 hPa 0,0 l/m 0 min 0 min 45 W/m 6,3 km/h (2 Bft)
01.06.2015 06:30 9,8 C 10,0 C 95 % 15 lf 1014,5 hPa 0,0 l/m 0 min 0 min 49 W/m 6,3 km/h (2 Bft)
01.06.2015 06:32 9,8 C 10,0 C 95 % 15 lf 1014,5 hPa 0,0 l/m 0 min 0 min 56 W/m 6,3 km/h (2 Bft)
01.06.2015 06:34 9,8 C 10,0 C 95 % 15 lf 1014,6 hPa 0,0 l/m 0 min 0 min 61 W/m 6,3 km/h (2 Bft)
01.06.2015 06:36 9,9 C 10,0 C 95 % 15 lf 1014,7 hPa 0,0 l/m 0 min 0 min 63 W/m 6,3 km/h (2 Bft)
01.06.2015 06:38 9,9 C 10,0 C 95 % 15 lf 1014,8 hPa 0,0 l/m 0 min 0 min 68 W/m 6,3 km/h (2 Bft)
01.06.2015 06:40 9,9 C 10,0 C 95 % 15 lf 1014,8 hPa 0,0 l/m 0 min 0 min 74 W/m 8,4 km/h (2 Bft)
01.06.2015 06:42 9,9 C 10,0 C 95 % 15 lf 1014,8 hPa 0,0 l/m 0 min 0 min 76 W/m 6,3 km/h (2 Bft)
01.06.2015 06:44 9,9 C 10,0 C 95 % 15 lf 1014,8 hPa 0,0 l/m 0 min 0 min 76 W/m 8,4 km/h (2 Bft)
01.06.2015 06:46 9,9 C 10,0 C 95 % 15 lf 1014,9 hPa 0,0 l/m 0 min 0 min 72 W/m 6,3 km/h (2 Bft)
01.06.2015 06:48 10,0 C 10,0 C 95 % 15 lf 1015,0 hPa 0,0 l/m 0 min 0 min 71 W/m 6,3 km/h (2 Bft)
01.06.2015 06:50 10,0 C 10,0 C 95 % 15 lf 1015,0 hPa 0,0 l/m 0 min 0 min 73 W/m 8,4 km/h (2 Bft)
01.06.2015 06:52 10,0 C 10,0 C 95 % 15 lf 1015,0 hPa 0,0 l/m 0 min 0 min 75 W/m 8,4 km/h (2 Bft)
01.06.2015 06:54 10,0 C 10,0 C 95 % 15 lf 1014,9 hPa 0,0 l/m 0 min 0 min 74 W/m 6,3 km/h (2 Bft)
01.06.2015 06:56 10,1 C 10,0 C 95 % 15 lf 1015,0 hPa 0,0 l/m 0 min 0 min 74 W/m 8,4 km/h (2 Bft)
01.06.2015 06:58 10,1 C 10,0 C 95 % 15 lf 1015,0 hPa 0,0 l/m 0 min 0 min 73 W/m 8,4 km/h (2 Bft)
01.06.2015 07:00 10,1 C 10,0 C 95 % 15 lf 1015,1 hPa 0,0 l/m 0 min 0 min 77 W/m 8,4 km/h (2 Bft)
01.06.2015 07:02 10,1 C 10,0 C 95 % 15 lf 1015,2 hPa 0,0 l/m 0 min 0 min 88 W/m 8,4 km/h (2 Bft)
01.06.2015 07:04 10,1 C 10,0 C 95 % 15 lf 1015,1 hPa 0,0 l/m 0 min 0 min 91 W/m 6,3 km/h (2 Bft)
01.06.2015 07:06 10,2 C 10,0 C 96 % 15 lf 1015,2 hPa 0,0 l/m 0 min 0 min 92 W/m 8,4 km/h (2 Bft)
01.06.2015 07:08 10,1 C 10,0 C 96 % 15 lf 1015,1 hPa 0,0 l/m 0 min 0 min 104 W/m 8,4 km/h (2 Bft)
01.06.2015 07:10 10,2 C 10,0 C 96 % 15 lf 1015,1 hPa 0,0 l/m 2 min 0 min 130 W/m 8,4 km/h (2 Bft)
01.06.2015 07:12 10,2 C 10,0 C 96 % 15 lf 1015,2 hPa 0,0 l/m 2 min 0 min 148 W/m 6,3 km/h (2 Bft)
01.06.2015 07:14 10,2 C 10,0 C 96 % 15 lf 1015,2 hPa 0,0 l/m 2 min 0 min 131 W/m 8,4 km/h (2 Bft)
01.06.2015 07:16 10,2 C 10,6 C 96 % 15 lf 1015,2 hPa 0,0 l/m 2 min 0 min 138 W/m 8,4 km/h (2 Bft)
01.06.2015 07:18 10,3 C 10,6 C 96 % 15 lf 1015,2 hPa 0,0 l/m 2 min 0 min 147 W/m 10,5 km/h (2 Bft)
01.06.2015 07:20 10,3 C 10,6 C 96 % 15 lf 1015,2 hPa 0,0 l/m 2 min 0 min 159 W/m 10,5 km/h (2 Bft)
01.06.2015 07:22 10,3 C 10,6 C 96 % 15 lf 1015,2 hPa 0,0 l/m 2 min 0 min 166 W/m 8,4 km/h (2 Bft)
01.06.2015 07:24 10,4 C 10,6 C 96 % 15 lf 1015,2 hPa 0,0 l/m 2 min 0 min 143 W/m 8,4 km/h (2 Bft)
01.06.2015 07:26 10,4 C 10,6 C 96 % 15 lf 1015,2 hPa 0,0 l/m 2 min 0 min 154 W/m 6,3 km/h (2 Bft)
01.06.2015 07:28 10,5 C 10,6 C 96 % 15 lf 1015,2 hPa 0,0 l/m 2 min 0 min 163 W/m 6,3 km/h (2 Bft)
01.06.2015 07:30 10,6 C 10,6 C 96 % 15 lf 1015,3 hPa 0,0 l/m 2 min 0 min 140 W/m 6,3 km/h (2 Bft)
01.06.2015 07:32 10,6 C 10,6 C 96 % 15 lf 1015,3 hPa 0,0 l/m 0 min 0 min 138 W/m 10,5 km/h (2 Bft)
01.06.2015 07:34 10,7 C 10,6 C 96 % 15 lf 1015,4 hPa 0,0 l/m 2 min 0 min 149 W/m 8,4 km/h (2 Bft)
01.06.2015 07:36 10,7 C 10,6 C 96 % 15 lf 1015,4 hPa 0,0 l/m 0 min 0 min 140 W/m 10,5 km/h (2 Bft)
01.06.2015 07:38 10,8 C 10,6 C 96 % 15 lf 1015,4 hPa 0,0 l/m 0 min 0 min 127 W/m 12,6 km/h (3 Bft)
01.06.2015 07:40 10,8 C 10,6 C 96 % 15 lf 1015,4 hPa 0,0 l/m 0 min 0 min 127 W/m 8,4 km/h (2 Bft)
01.06.2015 07:42 10,8 C 10,6 C 96 % 15 lf 1015,4 hPa 0,0 l/m 0 min 0 min 140 W/m 8,4 km/h (2 Bft)
01.06.2015 07:44 10,8 C 10,6 C 96 % 15 lf 1015,4 hPa 0,0 l/m 2 min 0 min 189 W/m 6,3 km/h (2 Bft)
01.06.2015 07:46 10,9 C 10,6 C 96 % 15 lf 1015,4 hPa 0,0 l/m 2 min 0 min 207 W/m 6,3 km/h (2 Bft)
01.06.2015 07:48 10,9 C 10,6 C 96 % 15 lf 1015,4 hPa 0,0 l/m 2 min 0 min 257 W/m 6,3 km/h (2 Bft)
01.06.2015 07:50 10,9 C 10,6 C 96 % 15 lf 1015,4 hPa 0,0 l/m 2 min 0 min 266 W/m 8,4 km/h (2 Bft)
01.06.2015 07:52 10,9 C 10,6 C 96 % 15 lf 1015,3 hPa 0,0 l/m 2 min 0 min 219 W/m 6,3 km/h (2 Bft)
01.06.2015 07:54 11,0 C 10,6 C 96 % 14 lf 1015,4 hPa 0,0 l/m 2 min 0 min 262 W/m 6,3 km/h (2 Bft)
01.06.2015 07:56 11,0 C 11,1 C 96 % 14 lf 1015,4 hPa 0,0 l/m 2 min 0 min 343 W/m 10,5 km/h (2 Bft)
01.06.2015 07:58 11,1 C 11,1 C 97 % 14 lf 1015,4 hPa 0,0 l/m 2 min 0 min 353 W/m 10,5 km/h (2 Bft)
01.06.2015 08:00 11,1 C 11,1 C 97 % 13 lf 1015,4 hPa 0,0 l/m 2 min 0 min 345 W/m 10,5 km/h (2 Bft)
01.06.2015 08:02 11,2 C 11,1 C 97 % 13 lf 1015,4 hPa 0,0 l/m 2 min 0 min 272 W/m 8,4 km/h (2 Bft)
01.06.2015 08:04 11,2 C 11,1 C 97 % 12 lf 1015,4 hPa 0,0 l/m 2 min 0 min 271 W/m 12,6 km/h (3 Bft)
01.06.2015 08:06 11,3 C 11,1 C 97 % 11 lf 1015,5 hPa 0,0 l/m 2 min 0 min 231 W/m 12,6 km/h (3 Bft)
01.06.2015 08:08 11,3 C 11,1 C 97 % 10 lf 1015,5 hPa 0,0 l/m 2 min 0 min 205 W/m 12,6 km/h (3 Bft)
01.06.2015 08:10 11,3 C 11,1 C 97 % 9 lf 1015,5 hPa 0,0 l/m 2 min 0 min 205 W/m 8,4 km/h (2 Bft)
01.06.2015 08:12 11,4 C 11,1 C 97 % 8 lf 1015,5 hPa 0,0 l/m 2 min 0 min 216 W/m 6,3 km/h (2 Bft)
01.06.2015 08:14 11,4 C 11,1 C 97 % 6 lf 1015,5 hPa 0,0 l/m 2 min 0 min 197 W/m 10,5 km/h (2 Bft)
01.06.2015 08:16 11,5 C 11,1 C 97 % 4 lf 1015,5 hPa 0,0 l/m 0 min 0 min 190 W/m 10,5 km/h (2 Bft)
01.06.2015 08:18 11,5 C 11,1 C 97 % 4 lf 1015,6 hPa 0,0 l/m 2 min 0 min 213 W/m 10,5 km/h (2 Bft)
01.06.2015 08:20 11,6 C 11,1 C 97 % 3 lf 1015,6 hPa 0,0 l/m 2 min 0 min 204 W/m 6,3 km/h (2 Bft)
01.06.2015 08:22 11,6 C 11,1 C 97 % 3 lf 1015,6 hPa 0,0 l/m 0 min 0 min 200 W/m 10,5 km/h (2 Bft)
01.06.2015 08:24 11,6 C 11,1 C 97 % 2 lf 1015,6 hPa 0,0 l/m 2 min 0 min 234 W/m 10,5 km/h (2 Bft)
01.06.2015 08:26 11,7 C 11,1 C 97 % 1 lf 1015,6 hPa 0,0 l/m 2 min 0 min 301 W/m 6,3 km/h (2 Bft)
01.06.2015 08:28 11,7 C 11,7 C 97 % 0 lf 1015,7 hPa 0,0 l/m 2 min 0 min 292 W/m 6,3 km/h (2 Bft)
01.06.2015 08:30 11,7 C 11,7 C 97 % 0 lf 1015,7 hPa 0,0 l/m 2 min 0 min 244 W/m 4,2 km/h (1 Bft)
01.06.2015 08:32 11,8 C 11,7 C 97 % 0 lf 1015,7 hPa 0,0 l/m 0 min 0 min 198 W/m 8,4 km/h (2 Bft)
01.06.2015 08:34 11,8 C 11,7 C 97 % 0 lf 1015,8 hPa 0,0 l/m 0 min 0 min 195 W/m 10,5 km/h (2 Bft)
01.06.2015 08:36 11,8 C 11,7 C 97 % 0 lf 1015,8 hPa 0,0 l/m 2 min 0 min 220 W/m 10,5 km/h (2 Bft)
01.06.2015 08:38 11,9 C 11,7 C 97 % 0 lf 1015,8 hPa 0,0 l/m 0 min 0 min 202 W/m 8,4 km/h (2 Bft)
01.06.2015 08:40 11,9 C 11,7 C 96 % 0 lf 1015,9 hPa 0,0 l/m 0 min 0 min 200 W/m 10,5 km/h (2 Bft)
01.06.2015 08:42 11,9 C 11,7 C 96 % 0 lf 1015,9 hPa 0,0 l/m 0 min 0 min 216 W/m 8,4 km/h (2 Bft)
01.06.2015 08:44 11,9 C 11,7 C 96 % 0 lf 1015,8 hPa 0,0 l/m 0 min 0 min 222 W/m 8,4 km/h (2 Bft)
01.06.2015 08:46 12,0 C 11,7 C 96 % 0 lf 1015,8 hPa 0,0 l/m 0 min 0 min 214 W/m 10,5 km/h (2 Bft)
01.06.2015 08:48 12,0 C 11,7 C 96 % 0 lf 1015,8 hPa 0,0 l/m 0 min 0 min 209 W/m 10,5 km/h (2 Bft)
01.06.2015 08:50 12,1 C 11,7 C 96 % 0 lf 1015,8 hPa 0,0 l/m 0 min 0 min 213 W/m 10,5 km/h (2 Bft)
01.06.2015 08:52 12,1 C 11,7 C 96 % 0 lf 1015,8 hPa 0,0 l/m 2 min 0 min 267 W/m 6,3 km/h (2 Bft)
01.06.2015 08:54 12,2 C 11,7 C 96 % 0 lf 1015,8 hPa 0,0 l/m 2 min 0 min 290 W/m 8,4 km/h (2 Bft)
01.06.2015 08:56 12,2 C 11,7 C 96 % 0 lf 1015,8 hPa 0,0 l/m 0 min 0 min 225 W/m 12,6 km/h (3 Bft)
01.06.2015 08:58 12,2 C 11,7 C 96 % 0 lf 1015,7 hPa 0,0 l/m 0 min 0 min 241 W/m 6,3 km/h (2 Bft)
01.06.2015 09:00 12,2 C 11,7 C 96 % 0 lf 1015,7 hPa 0,0 l/m 2 min 0 min 378 W/m 8,4 km/h (2 Bft)
01.06.2015 09:02 12,3 C 11,7 C 96 % 0 lf 1015,7 hPa 0,0 l/m 2 min 0 min 278 W/m 8,4 km/h (2 Bft)
01.06.2015 09:04 12,4 C 12,2 C 96 % 0 lf 1015,8 hPa 0,0 l/m 2 min 0 min 278 W/m 6,3 km/h (2 Bft)
01.06.2015 09:06 12,4 C 12,2 C 96 % 0 lf 1015,8 hPa 0,0 l/m 2 min 0 min 360 W/m 8,4 km/h (2 Bft)
01.06.2015 09:08 12,4 C 12,2 C 96 % 0 lf 1015,9 hPa 0,0 l/m 2 min 0 min 268 W/m 8,4 km/h (2 Bft)
01.06.2015 09:10 12,5 C 12,2 C 95 % 0 lf 1015,9 hPa 0,0 l/m 0 min 0 min 251 W/m 8,4 km/h (2 Bft)
01.06.2015 09:12 12,6 C 12,2 C 95 % 0 lf 1015,9 hPa 0,0 l/m 2 min 0 min 276 W/m 4,2 km/h (1 Bft)
01.06.2015 09:14 12,6 C 12,2 C 95 % 0 lf 1016,0 hPa 0,0 l/m 2 min 0 min 337 W/m 8,4 km/h (2 Bft)
01.06.2015 09:16 12,6 C 12,2 C 95 % 0 lf 1016,0 hPa 0,0 l/m 2 min 0 min 403 W/m 8,4 km/h (2 Bft)
01.06.2015 09:18 12,7 C 12,2 C 95 % 0 lf 1016,0 hPa 0,0 l/m 2 min 0 min 419 W/m 6,3 km/h (2 Bft)
01.06.2015 09:20 12,7 C 12,2 C 94 % 0 lf 1016,0 hPa 0,0 l/m 2 min 0 min 399 W/m 4,2 km/h (1 Bft)
01.06.2015 09:22 12,8 C 12,2 C 94 % 0 lf 1016,0 hPa 0,0 l/m 2 min 0 min 301 W/m 10,5 km/h (2 Bft)
01.06.2015 09:24 12,9 C 12,2 C 93 % 0 lf 1016,0 hPa 0,0 l/m 2 min 0 min 308 W/m 8,4 km/h (2 Bft)
01.06.2015 09:26 12,9 C 12,2 C 93 % 0 lf 1016,0 hPa 0,0 l/m 2 min 0 min 288 W/m 12,6 km/h (3 Bft)
01.06.2015 09:28 12,9 C 12,2 C 92 % 0 lf 1016,1 hPa 0,0 l/m 2 min 0 min 295 W/m 10,5 km/h (2 Bft)
01.06.2015 09:30 12,9 C 12,2 C 92 % 0 lf 1016,0 hPa 0,0 l/m 2 min 0 min 313 W/m 10,5 km/h (2 Bft)
01.06.2015 09:32 13,0 C 12,2 C 90 % 0 lf 1016,1 hPa 0,0 l/m 2 min 0 min 324 W/m 8,4 km/h (2 Bft)
01.06.2015 09:34 13,0 C 12,2 C 89 % 0 lf 1016,0 hPa 0,0 l/m 2 min 0 min 370 W/m 8,4 km/h (2 Bft)
01.06.2015 09:36 13,1 C 12,2 C 89 % 0 lf 1015,9 hPa 0,0 l/m 2 min 0 min 358 W/m 6,3 km/h (2 Bft)
01.06.2015 09:38 13,1 C 12,2 C 88 % 0 lf 1016,0 hPa 0,0 l/m 2 min 0 min 363 W/m 4,2 km/h (1 Bft)
01.06.2015 09:40 13,1 C 12,2 C 86 % 0 lf 1016,0 hPa 0,0 l/m 2 min 0 min 318 W/m 8,4 km/h (2 Bft)
01.06.2015 09:42 13,2 C 12,2 C 86 % 0 lf 1016,1 hPa 0,0 l/m 2 min 0 min 334 W/m 10,5 km/h (2 Bft)
01.06.2015 09:44 13,3 C 12,8 C 85 % 0 lf 1016,1 hPa 0,0 l/m 2 min 0 min 394 W/m 10,5 km/h (2 Bft)
01.06.2015 09:46 13,3 C 12,8 C 85 % 0 lf 1016,1 hPa 0,0 l/m 2 min 0 min 405 W/m 6,3 km/h (2 Bft)
01.06.2015 09:48 13,4 C 12,8 C 85 % 0 lf 1016,1 hPa 0,0 l/m 2 min 0 min 403 W/m 6,3 km/h (2 Bft)
01.06.2015 09:50 13,5 C 12,8 C 84 % 0 lf 1016,1 hPa 0,0 l/m 2 min 0 min 409 W/m 10,5 km/h (2 Bft)
01.06.2015 09:52 13,6 C 13,3 C 84 % 0 lf 1016,1 hPa 0,0 l/m 2 min 0 min 483 W/m 8,4 km/h (2 Bft)
01.06.2015 09:54 13,7 C 13,3 C 83 % 0 lf 1016,1 hPa 0,0 l/m 2 min 0 min 492 W/m 6,3 km/h (2 Bft)
01.06.2015 09:56 13,8 C 13,9 C 83 % 0 lf 1016,2 hPa 0,0 l/m 2 min 0 min 549 W/m 12,6 km/h (3 Bft)
01.06.2015 09:58 14,0 C 13,9 C 83 % 0 lf 1016,2 hPa 0,0 l/m 2 min 0 min 493 W/m 10,5 km/h (2 Bft)
01.06.2015 10:00 14,2 C 13,9 C 83 % 0 lf 1016,2 hPa 0,0 l/m 2 min 0 min 480 W/m 6,3 km/h (2 Bft)
01.06.2015 10:02 14,2 C 14,4 C 81 % 0 lf 1016,2 hPa 0,0 l/m 2 min 0 min 471 W/m 6,3 km/h (2 Bft)
01.06.2015 10:04 14,2 C 14,4 C 80 % 0 lf 1016,2 hPa 0,0 l/m 2 min 0 min 395 W/m 10,5 km/h (2 Bft)
01.06.2015 10:06 14,2 C 14,4 C 78 % 0 lf 1016,2 hPa 0,0 l/m 2 min 0 min 477 W/m 12,6 km/h (3 Bft)
01.06.2015 10:08 14,3 C 14,4 C 78 % 0 lf 1016,2 hPa 0,0 l/m 2 min 0 min 461 W/m 8,4 km/h (2 Bft)
01.06.2015 10:10 14,4 C 14,4 C 77 % 0 lf 1016,2 hPa 0,0 l/m 2 min 0 min 426 W/m 6,3 km/h (2 Bft)
01.06.2015 10:12 14,5 C 13,9 C 77 % 0 lf 1016,2 hPa 0,0 l/m 2 min 0 min 447 W/m 8,4 km/h (2 Bft)
01.06.2015 10:14 14,6 C 13,9 C 76 % 0 lf 1016,2 hPa 0,0 l/m 2 min 0 min 404 W/m 8,4 km/h (2 Bft)
01.06.2015 10:16 14,6 C 13,3 C 75 % 0 lf 1016,2 hPa 0,0 l/m 2 min 0 min 409 W/m 6,3 km/h (2 Bft)
01.06.2015 10:18 14,6 C 13,3 C 75 % 0 lf 1016,2 hPa 0,0 l/m 2 min 0 min 431 W/m 10,5 km/h (2 Bft)
01.06.2015 10:20 14,7 C 13,9 C 77 % 0 lf 1016,2 hPa 0,0 l/m 2 min 0 min 488 W/m 10,5 km/h (2 Bft)
01.06.2015 10:22 14,8 C 13,9 C 77 % 0 lf 1016,2 hPa 0,0 l/m 2 min 0 min 578 W/m 10,5 km/h (2 Bft)
01.06.2015 10:24 14,8 C 13,9 C 75 % 0 lf 1016,2 hPa 0,0 l/m 2 min 0 min 554 W/m 12,6 km/h (3 Bft)
01.06.2015 10:26 14,8 C 13,9 C 74 % 0 lf 1016,2 hPa 0,0 l/m 2 min 0 min 551 W/m 8,4 km/h (2 Bft)
01.06.2015 10:28 14,9 C 13,9 C 73 % 0 lf 1016,2 hPa 0,0 l/m 2 min 0 min 596 W/m 8,4 km/h (2 Bft)
01.06.2015 10:30 15,0 C 13,9 C 74 % 0 lf 1016,1 hPa 0,0 l/m 2 min 0 min 671 W/m 8,4 km/h (2 Bft)
01.06.2015 10:32 15,1 C 13,9 C 73 % 0 lf 1016,1 hPa 0,0 l/m 2 min 0 min 639 W/m 6,3 km/h (2 Bft)
01.06.2015 10:34 15,2 C 13,9 C 73 % 0 lf 1016,2 hPa 0,0 l/m 2 min 0 min 549 W/m 4,2 km/h (1 Bft)
01.06.2015 10:36 15,2 C 13,9 C 72 % 0 lf 1016,2 hPa 0,0 l/m 2 min 0 min 394 W/m 10,5 km/h (2 Bft)
01.06.2015 10:38 15,2 C 13,9 C 72 % 0 lf 1016,3 hPa 0,0 l/m 2 min 0 min 406 W/m 10,5 km/h (2 Bft)
01.06.2015 10:40 15,3 C 13,9 C 70 % 0 lf 1016,3 hPa 0,0 l/m 2 min 0 min 485 W/m 8,4 km/h (2 Bft)
01.06.2015 10:42 15,3 C 13,9 C 68 % 0 lf 1016,3 hPa 0,0 l/m 2 min 0 min 519 W/m 4,2 km/h (1 Bft)
01.06.2015 10:44 15,3 C 13,9 C 70 % 0 lf 1016,2 hPa 0,0 l/m 2 min 0 min 556 W/m 8,4 km/h (2 Bft)
01.06.2015 10:46 15,4 C 13,9 C 70 % 0 lf 1016,3 hPa 0,0 l/m 2 min 0 min 619 W/m 8,4 km/h (2 Bft)
01.06.2015 10:48 15,5 C 14,4 C 71 % 0 lf 1016,3 hPa 0,0 l/m 2 min 0 min 638 W/m 8,4 km/h (2 Bft)
01.06.2015 10:50 15,6 C 14,4 C 72 % 0 lf 1016,3 hPa 0,0 l/m 2 min 0 min 738 W/m 10,5 km/h (2 Bft)
01.06.2015 10:52 15,7 C 15,0 C 70 % 0 lf 1016,3 hPa 0,0 l/m 2 min 0 min 738 W/m 10,5 km/h (2 Bft)
01.06.2015 10:54 15,8 C 15,0 C 69 % 0 lf 1016,3 hPa 0,0 l/m 2 min 0 min 716 W/m 10,5 km/h (2 Bft)
01.06.2015 10:56 15,9 C 15,0 C 67 % 0 lf 1016,3 hPa 0,0 l/m 2 min 0 min 544 W/m 8,4 km/h (2 Bft)
01.06.2015 10:58 15,9 C 14,4 C 66 % 0 lf 1016,3 hPa 0,0 l/m 2 min 0 min 456 W/m 14,6 km/h (3 Bft)
01.06.2015 11:00 15,9 C 14,4 C 67 % 0 lf 1016,4 hPa 0,0 l/m 2 min 0 min 524 W/m 12,6 km/h (3 Bft)
01.06.2015 11:02 15,9 C 14,4 C 66 % 0 lf 1016,3 hPa 0,0 l/m 2 min 0 min 534 W/m 8,4 km/h (2 Bft)
01.06.2015 11:04 16,0 C 15,0 C 67 % 0 lf 1016,3 hPa 0,0 l/m 2 min 0 min 548 W/m 10,5 km/h (2 Bft)
01.06.2015 11:06 16,1 C 15,0 C 68 % 0 lf 1016,3 hPa 0,0 l/m 2 min 0 min 560 W/m 10,5 km/h (2 Bft)
01.06.2015 11:08 16,1 C 14,4 C 67 % 0 lf 1016,3 hPa 0,0 l/m 0 min 0 min 364 W/m 12,6 km/h (3 Bft)
01.06.2015 11:10 16,1 C 14,4 C 67 % 0 lf 1016,4 hPa 0,0 l/m 0 min 0 min 322 W/m 12,6 km/h (3 Bft)
01.06.2015 11:12 16,1 C 13,9 C 67 % 0 lf 1016,5 hPa 0,0 l/m 0 min 0 min 281 W/m 10,5 km/h (2 Bft)
01.06.2015 11:14 16,1 C 13,9 C 68 % 0 lf 1016,5 hPa 0,0 l/m 0 min 0 min 272 W/m 12,6 km/h (3 Bft)
01.06.2015 11:16 16,1 C 13,9 C 68 % 0 lf 1016,5 hPa 0,0 l/m 0 min 0 min 280 W/m 12,6 km/h (3 Bft)
01.06.2015 11:18 16,0 C 13,3 C 68 % 0 lf 1016,6 hPa 0,0 l/m 0 min 0 min 299 W/m 10,5 km/h (2 Bft)
01.06.2015 11:20 15,9 C 13,3 C 68 % 0 lf 1016,5 hPa 0,0 l/m 0 min 0 min 309 W/m 12,6 km/h (3 Bft)
01.06.2015 11:22 15,9 C 13,3 C 68 % 0 lf 1016,5 hPa 0,0 l/m 0 min 0 min 302 W/m 10,5 km/h (2 Bft)
01.06.2015 11:24 15,8 C 13,3 C 69 % 0 lf 1016,5 hPa 0,0 l/m 0 min 0 min 290 W/m 8,4 km/h (2 Bft)
01.06.2015 11:26 15,8 C 13,3 C 70 % 0 lf 1016,5 hPa 0,0 l/m 0 min 0 min 281 W/m 8,4 km/h (2 Bft)
01.06.2015 11:28 15,7 C 13,3 C 70 % 0 lf 1016,6 hPa 0,0 l/m 0 min 0 min 286 W/m 16,7 km/h (3 Bft)
01.06.2015 11:30 15,7 C 13,3 C 69 % 0 lf 1016,6 hPa 0,0 l/m 0 min 0 min 303 W/m 16,7 km/h (3 Bft)
01.06.2015 11:32 15,6 C 13,3 C 68 % 0 lf 1016,6 hPa 0,0 l/m 0 min 0 min 331 W/m 14,6 km/h (3 Bft)
01.06.2015 11:34 15,6 C 13,3 C 67 % 0 lf 1016,6 hPa 0,0 l/m 0 min 0 min 378 W/m 16,7 km/h (3 Bft)
01.06.2015 11:36 15,5 C 13,3 C 68 % 0 lf 1016,6 hPa 0,0 l/m 2 min 0 min 454 W/m 8,4 km/h (2 Bft)
01.06.2015 11:38 15,5 C 13,9 C 69 % 0 lf 1016,5 hPa 0,0 l/m 2 min 0 min 390 W/m 12,6 km/h (3 Bft)
01.06.2015 11:40 15,5 C 13,9 C 69 % 0 lf 1016,5 hPa 0,0 l/m 0 min 0 min 321 W/m 14,6 km/h (3 Bft)
01.06.2015 11:42 15,5 C 13,9 C 70 % 0 lf 1016,5 hPa 0,0 l/m 0 min 0 min 315 W/m 14,6 km/h (3 Bft)
01.06.2015 11:44 15,4 C 13,9 C 70 % 0 lf 1016,5 hPa 0,0 l/m 0 min 0 min 330 W/m 14,6 km/h (3 Bft)
01.06.2015 11:46 15,4 C 13,9 C 70 % 0 lf 1016,5 hPa 0,0 l/m 0 min 0 min 351 W/m 10,5 km/h (2 Bft)
01.06.2015 11:48 15,4 C 13,9 C 71 % 0 lf 1016,5 hPa 0,0 l/m 0 min 0 min 365 W/m 10,5 km/h (2 Bft)
01.06.2015 11:50 15,4 C 13,9 C 71 % 0 lf 1016,5 hPa 0,0 l/m 0 min 0 min 375 W/m 8,4 km/h (2 Bft)
01.06.2015 11:52 15,4 C 13,9 C 70 % 0 lf 1016,5 hPa 0,0 l/m 0 min 0 min 365 W/m 4,2 km/h (1 Bft)
01.06.2015 11:54 15,4 C 13,9 C 71 % 0 lf 1016,5 hPa 0,0 l/m 0 min 0 min 330 W/m 8,4 km/h (2 Bft)
01.06.2015 11:56 15,4 C 13,9 C 72 % 0 lf 1016,5 hPa 0,0 l/m 0 min 0 min 310 W/m 10,5 km/h (2 Bft)
01.06.2015 11:58 15,4 C 13,9 C 71 % 0 lf 1016,5 hPa 0,0 l/m 0 min 0 min 320 W/m 10,5 km/h (2 Bft)
01.06.2015 12:00 15,4 C 13,9 C 71 % 0 lf 1016,5 hPa 0,0 l/m 2 min 0 min 420 W/m 12,6 km/h (3 Bft)
01.06.2015 12:02 15,4 C 13,9 C 72 % 0 lf 1016,4 hPa 0,0 l/m 2 min 0 min 413 W/m 14,6 km/h (3 Bft)
01.06.2015 12:06 15,4 C 13,9 C 71 % 0 lf 1016,5 hPa 0,0 l/m 0 min 0 min 373 W/m 14,6 km/h (3 Bft)
01.06.2015 12:08 15,4 C 13,9 C 70 % 0 lf 1016,4 hPa 0,0 l/m 2 min 0 min 410 W/m 18,8 km/h (3 Bft)
01.06.2015 12:10 15,4 C 14,4 C 69 % 0 lf 1016,4 hPa 0,0 l/m 2 min 0 min 410 W/m 18,8 km/h (3 Bft)
01.06.2015 12:12 15,5 C 14,4 C 70 % 0 lf 1016,5 hPa 0,0 l/m 0 min 0 min 401 W/m 20,9 km/h (4 Bft)
01.06.2015 12:14 15,6 C 14,4 C 71 % 0 lf 1016,5 hPa 0,0 l/m 0 min 0 min 399 W/m 18,8 km/h (3 Bft)
01.06.2015 12:16 15,6 C 14,4 C 70 % 0 lf 1016,5 hPa 0,0 l/m 2 min 0 min 412 W/m 14,6 km/h (3 Bft)
01.06.2015 12:18 15,7 C 14,4 C 70 % 0 lf 1016,6 hPa 0,0 l/m 2 min 0 min 424 W/m 14,6 km/h (3 Bft)
01.06.2015 12:20 15,7 C 15,0 C 70 % 0 lf 1016,6 hPa 0,0 l/m 2 min 0 min 492 W/m 14,6 km/h (3 Bft)
01.06.2015 12:22 15,7 C 15,0 C 70 % 0 lf 1016,6 hPa 0,0 l/m 2 min 0 min 568 W/m 14,6 km/h (3 Bft)
01.06.2015 12:24 15,8 C 15,0 C 70 % 0 lf 1016,5 hPa 0,0 l/m 2 min 0 min 526 W/m 10,5 km/h (2 Bft)
01.06.2015 12:26 15,8 C 15,0 C 71 % 0 lf 1016,5 hPa 0,0 l/m 2 min 0 min 539 W/m 12,6 km/h (3 Bft)
01.06.2015 12:28 15,9 C 15,0 C 71 % 0 lf 1016,6 hPa 0,0 l/m 2 min 0 min 492 W/m 14,6 km/h (3 Bft)
01.06.2015 12:30 15,9 C 15,0 C 70 % 0 lf 1016,6 hPa 0,0 l/m 2 min 0 min 453 W/m 12,6 km/h (3 Bft)
01.06.2015 12:32 16,0 C 15,0 C 71 % 0 lf 1016,6 hPa 0,0 l/m 2 min 0 min 466 W/m 8,4 km/h (2 Bft)
01.06.2015 12:34 16,1 C 15,6 C 70 % 0 lf 1016,6 hPa 0,0 l/m 2 min 0 min 542 W/m 10,5 km/h (2 Bft)
01.06.2015 12:36 16,2 C 15,6 C 71 % 0 lf 1016,6 hPa 0,0 l/m 2 min 0 min 605 W/m 16,7 km/h (3 Bft)
01.06.2015 12:38 16,3 C 15,6 C 70 % 0 lf 1016,5 hPa 0,0 l/m 2 min 0 min 514 W/m 12,6 km/h (3 Bft)
01.06.2015 12:40 16,3 C 15,6 C 69 % 0 lf 1016,5 hPa 0,0 l/m 0 min 0 min 406 W/m 10,5 km/h (2 Bft)
01.06.2015 12:42 16,4 C 15,0 C 69 % 0 lf 1016,5 hPa 0,0 l/m 0 min 0 min 371 W/m 14,6 km/h (3 Bft)
01.06.2015 12:44 16,4 C 15,0 C 70 % 0 lf 1016,5 hPa 0,0 l/m 0 min 0 min 367 W/m 14,6 km/h (3 Bft)
01.06.2015 12:46 16,4 C 15,0 C 68 % 0 lf 1016,6 hPa 0,0 l/m 2 min 0 min 423 W/m 12,6 km/h (3 Bft)
01.06.2015 12:48 16,4 C 15,0 C 68 % 0 lf 1016,6 hPa 0,0 l/m 2 min 0 min 419 W/m 12,6 km/h (3 Bft)
01.06.2015 12:50 16,4 C 15,0 C 67 % 0 lf 1016,5 hPa 0,0 l/m 0 min 0 min 349 W/m 12,6 km/h (3 Bft)
01.06.2015 12:52 16,4 C 15,0 C 68 % 0 lf 1016,6 hPa 0,0 l/m 0 min 0 min 324 W/m 10,5 km/h (2 Bft)
01.06.2015 12:54 16,4 C 15,0 C 68 % 0 lf 1016,6 hPa 0,0 l/m 0 min 0 min 407 W/m 10,5 km/h (2 Bft)
01.06.2015 12:56 16,4 C 15,0 C 68 % 0 lf 1016,6 hPa 0,0 l/m 0 min 0 min 382 W/m 14,6 km/h (3 Bft)
01.06.2015 12:58 16,4 C 15,0 C 68 % 0 lf 1016,7 hPa 0,0 l/m 0 min 0 min 392 W/m 12,6 km/h (3 Bft)
01.06.2015 13:00 16,4 C 15,0 C 67 % 0 lf 1016,6 hPa 0,0 l/m 2 min 0 min 437 W/m 14,6 km/h (3 Bft)
01.06.2015 13:02 16,4 C 15,6 C 67 % 0 lf 1016,6 hPa 0,0 l/m 2 min 0 min 521 W/m 16,7 km/h (3 Bft)
01.06.2015 13:04 16,4 C 16,1 C 67 % 0 lf 1016,6 hPa 0,0 l/m 2 min 0 min 536 W/m 16,7 km/h (3 Bft)
01.06.2015 13:06 16,4 C 16,1 C 66 % 0 lf 1016,5 hPa 0,0 l/m 2 min 0 min 641 W/m 18,8 km/h (3 Bft)
01.06.2015 13:08 16,5 C 16,7 C 66 % 0 lf 1016,4 hPa 0,0 l/m 2 min 0 min 769 W/m 16,7 km/h (3 Bft)
01.06.2015 13:10 16,6 C 17,2 C 65 % 0 lf 1016,4 hPa 0,0 l/m 2 min 0 min 701 W/m 12,6 km/h (3 Bft)
01.06.2015 13:12 16,7 C 17,2 C 66 % 0 lf 1016,4 hPa 0,0 l/m 2 min 0 min 794 W/m 12,6 km/h (3 Bft)
01.06.2015 13:14 16,7 C 17,2 C 63 % 0 lf 1016,4 hPa 0,0 l/m 2 min 0 min 737 W/m 20,9 km/h (4 Bft)
01.06.2015 13:16 16,8 C 16,7 C 63 % 0 lf 1016,4 hPa 0,0 l/m 2 min 0 min 506 W/m 18,8 km/h (3 Bft)
01.06.2015 13:18 16,8 C 16,1 C 63 % 0 lf 1016,4 hPa 0,0 l/m 2 min 0 min 472 W/m 14,6 km/h (3 Bft)
01.06.2015 13:20 16,9 C 16,1 C 64 % 0 lf 1016,4 hPa 0,0 l/m 2 min 0 min 505 W/m 12,6 km/h (3 Bft)
01.06.2015 13:22 16,9 C 16,1 C 63 % 0 lf 1016,4 hPa 0,0 l/m 2 min 0 min 497 W/m 12,6 km/h (3 Bft)
01.06.2015 13:24 17,0 C 16,1 C 64 % 0 lf 1016,4 hPa 0,0 l/m 2 min 0 min 546 W/m 14,6 km/h (3 Bft)
01.06.2015 13:26 17,1 C 16,1 C 64 % 0 lf 1016,3 hPa 0,0 l/m 2 min 0 min 567 W/m 14,6 km/h (3 Bft)
01.06.2015 13:28 17,1 C 16,7 C 64 % 0 lf 1016,3 hPa 0,0 l/m 2 min 0 min 571 W/m 20,9 km/h (4 Bft)
01.06.2015 13:30 17,2 C 16,1 C 63 % 0 lf 1016,3 hPa 0,0 l/m 2 min 0 min 609 W/m 20,9 km/h (4 Bft)
01.06.2015 13:32 17,2 C 16,7 C 60 % 0 lf 1016,3 hPa 0,0 l/m 2 min 0 min 680 W/m 20,9 km/h (4 Bft)
01.06.2015 13:34 17,2 C 16,7 C 59 % 0 lf 1016,3 hPa 0,0 l/m 2 min 0 min 802 W/m 18,8 km/h (3 Bft)
01.06.2015 13:36 17,2 C 16,7 C 58 % 0 lf 1016,3 hPa 0,0 l/m 2 min 0 min 768 W/m 18,8 km/h (3 Bft)
01.06.2015 13:38 17,3 C 16,7 C 58 % 0 lf 1016,3 hPa 0,0 l/m 2 min 0 min 735 W/m 20,9 km/h (4 Bft)
01.06.2015 13:40 17,3 C 16,7 C 58 % 0 lf 1016,3 hPa 0,0 l/m 2 min 0 min 715 W/m 23,0 km/h (4 Bft)
01.06.2015 13:42 17,3 C 16,7 C 60 % 0 lf 1016,3 hPa 0,0 l/m 2 min 0 min 728 W/m 12,6 km/h (3 Bft)
01.06.2015 13:44 17,4 C 16,7 C 61 % 0 lf 1016,3 hPa 0,0 l/m 2 min 0 min 900 W/m 18,8 km/h (3 Bft)
01.06.2015 13:46 17,6 C 16,7 C 61 % 0 lf 1016,3 hPa 0,0 l/m 2 min 0 min 915 W/m 16,7 km/h (3 Bft)
01.06.2015 13:48 17,7 C 16,7 C 61 % 0 lf 1016,3 hPa 0,0 l/m 2 min 0 min 888 W/m 14,6 km/h (3 Bft)
01.06.2015 13:50 17,8 C 16,7 C 60 % 0 lf 1016,4 hPa 0,0 l/m 2 min 0 min 790 W/m 20,9 km/h (4 Bft)
01.06.2015 13:52 17,9 C 16,7 C 61 % 0 lf 1016,4 hPa 0,0 l/m 2 min 0 min 713 W/m 16,7 km/h (3 Bft)
01.06.2015 13:54 18,0 C 16,7 C 59 % 0 lf 1016,4 hPa 0,0 l/m 2 min 0 min 603 W/m 16,7 km/h (3 Bft)
01.06.2015 13:56 18,1 C 16,7 C 61 % 0 lf 1016,4 hPa 0,0 l/m 2 min 0 min 576 W/m 14,6 km/h (3 Bft)
01.06.2015 13:58 18,1 C 17,2 C 60 % 0 lf 1016,4 hPa 0,0 l/m 2 min 0 min 691 W/m 16,7 km/h (3 Bft)
01.06.2015 14:00 18,1 C 17,2 C 58 % 0 lf 1016,4 hPa 0,0 l/m 2 min 0 min 650 W/m 14,6 km/h (3 Bft)
01.06.2015 14:02 18,2 C 17,2 C 58 % 0 lf 1016,3 hPa 0,0 l/m 2 min 0 min 703 W/m 25,1 km/h (4 Bft)
01.06.2015 14:04 18,2 C 17,2 C 56 % 0 lf 1016,4 hPa 0,0 l/m 2 min 0 min 831 W/m 25,1 km/h (4 Bft)
01.06.2015 14:06 18,3 C 17,2 C 56 % 0 lf 1016,4 hPa 0,0 l/m 2 min 0 min 843 W/m 16,7 km/h (3 Bft)
01.06.2015 14:08 18,3 C 17,2 C 54 % 0 lf 1016,4 hPa 0,0 l/m 2 min 0 min 747 W/m 20,9 km/h (4 Bft)
01.06.2015 14:10 18,3 C 16,7 C 56 % 0 lf 1016,5 hPa 0,0 l/m 2 min 0 min 753 W/m 27,2 km/h (4 Bft)
01.06.2015 14:12 18,3 C 16,7 C 55 % 0 lf 1016,4 hPa 0,0 l/m 2 min 0 min 779 W/m 20,9 km/h (4 Bft)
01.06.2015 14:14 18,3 C 16,7 C 56 % 0 lf 1016,5 hPa 0,0 l/m 2 min 0 min 851 W/m 20,9 km/h (4 Bft)
01.06.2015 14:16 18,4 C 16,7 C 55 % 0 lf 1016,5 hPa 0,0 l/m 2 min 0 min 1033 W/m 18,8 km/h (3 Bft)
01.06.2015 14:18 18,4 C 17,2 C 58 % 0 lf 1016,5 hPa 0,0 l/m 2 min 0 min 1008 W/m 16,7 km/h (3 Bft)
01.06.2015 14:20 18,6 C 16,7 C 56 % 0 lf 1016,5 hPa 0,0 l/m 2 min 0 min 981 W/m 27,2 km/h (4 Bft)
01.06.2015 14:22 18,5 C 16,7 C 54 % 0 lf 1016,6 hPa 0,0 l/m 2 min 0 min 981 W/m 23,0 km/h (4 Bft)
01.06.2015 14:24 18,5 C 16,7 C 55 % 0 lf 1016,6 hPa 0,0 l/m 2 min 0 min 959 W/m 27,2 km/h (4 Bft)
01.06.2015 14:26 18,5 C 16,7 C 55 % 0 lf 1016,7 hPa 0,0 l/m 2 min 0 min 940 W/m 29,3 km/h (5 Bft)
01.06.2015 14:28 18,5 C 16,7 C 54 % 0 lf 1016,6 hPa 0,0 l/m 2 min 0 min 791 W/m 20,9 km/h (4 Bft)
01.06.2015 14:30 18,4 C 16,1 C 54 % 0 lf 1016,6 hPa 0,0 l/m 0 min 0 min 276 W/m 33,5 km/h (5 Bft)
01.06.2015 14:32 18,3 C 16,1 C 56 % 0 lf 1016,6 hPa 0,0 l/m 0 min 0 min 277 W/m 23,0 km/h (4 Bft)
01.06.2015 14:34 18,3 C 16,7 C 57 % 0 lf 1016,6 hPa 0,0 l/m 0 min 0 min 387 W/m 16,7 km/h (3 Bft)
01.06.2015 14:36 18,3 C 16,7 C 57 % 0 lf 1016,5 hPa 0,0 l/m 2 min 0 min 867 W/m 18,8 km/h (3 Bft)
01.06.2015 14:38 18,2 C 17,2 C 56 % 0 lf 1016,6 hPa 0,0 l/m 2 min 0 min 471 W/m 20,9 km/h (4 Bft)
01.06.2015 14:40 18,2 C 18,3 C 58 % 0 lf 1016,5 hPa 0,0 l/m 2 min 0 min 713 W/m 12,6 km/h (3 Bft)
01.06.2015 14:42 18,3 C 19,4 C 58 % 0 lf 1016,5 hPa 0,0 l/m 2 min 0 min 943 W/m 20,9 km/h (4 Bft)
01.06.2015 14:44 18,4 C 20,0 C 58 % 0 lf 1016,4 hPa 0,0 l/m 2 min 0 min 955 W/m 18,8 km/h (3 Bft)
01.06.2015 14:46 18,6 C 20,6 C 58 % 0 lf 1016,4 hPa 0,0 l/m 2 min 0 min 970 W/m 16,7 km/h (3 Bft)
01.06.2015 14:48 18,7 C 20,6 C 57 % 0 lf 1016,4 hPa 0,0 l/m 2 min 0 min 970 W/m 29,3 km/h (5 Bft)
01.06.2015 14:50 18,8 C 20,0 C 54 % 0 lf 1016,4 hPa 0,0 l/m 2 min 0 min 836 W/m 14,6 km/h (3 Bft)
01.06.2015 14:52 18,8 C 20,0 C 55 % 0 lf 1016,4 hPa 0,0 l/m 2 min 0 min 833 W/m 23,0 km/h (4 Bft)
01.06.2015 14:54 18,8 C 20,0 C 56 % 0 lf 1016,4 hPa 0,0 l/m 2 min 0 min 874 W/m 18,8 km/h (3 Bft)
01.06.2015 14:56 18,9 C 20,0 C 56 % 0 lf 1016,4 hPa 0,0 l/m 2 min 0 min 863 W/m 23,0 km/h (4 Bft)
01.06.2015 14:58 18,9 C 20,0 C 55 % 0 lf 1016,5 hPa 0,0 l/m 2 min 0 min 874 W/m 18,8 km/h (3 Bft)
01.06.2015 15:00 18,9 C 20,0 C 57 % 0 lf 1016,4 hPa 0,0 l/m 2 min 0 min 845 W/m 8,4 km/h (2 Bft)
01.06.2015 15:02 19,1 C 20,0 C 57 % 0 lf 1016,4 hPa 0,0 l/m 2 min 0 min 827 W/m 10,5 km/h (2 Bft)
01.06.2015 15:04 19,2 C 20,0 C 57 % 0 lf 1016,4 hPa 0,0 l/m 2 min 0 min 751 W/m 16,7 km/h (3 Bft)
01.06.2015 15:06 19,2 C 20,0 C 56 % 0 lf 1016,4 hPa 0,0 l/m 2 min 0 min 724 W/m 20,9 km/h (4 Bft)
01.06.2015 15:08 19,3 C 20,0 C 55 % 0 lf 1016,4 hPa 0,0 l/m 2 min 0 min 796 W/m 16,7 km/h (3 Bft)
01.06.2015 15:10 19,3 C 18,9 C 54 % 0 lf 1016,4 hPa 0,0 l/m 2 min 0 min 698 W/m 16,7 km/h (3 Bft)
01.06.2015 15:12 19,3 C 18,3 C 53 % 0 lf 1016,4 hPa 0,0 l/m 0 min 0 min 293 W/m 12,6 km/h (3 Bft)
01.06.2015 15:14 19,2 C 18,3 C 53 % 0 lf 1016,4 hPa 0,0 l/m 2 min 0 min 454 W/m 12,6 km/h (3 Bft)
01.06.2015 15:16 19,2 C 18,3 C 53 % 0 lf 1016,4 hPa 0,0 l/m 2 min 0 min 606 W/m 23,0 km/h (4 Bft)
01.06.2015 15:18 19,2 C 18,9 C 53 % 0 lf 1016,5 hPa 0,0 l/m 2 min 0 min 755 W/m 18,8 km/h (3 Bft)
01.06.2015 15:20 19,1 C 18,9 C 53 % 0 lf 1016,4 hPa 0,0 l/m 2 min 0 min 718 W/m 18,8 km/h (3 Bft)
01.06.2015 15:22 19,1 C 18,9 C 54 % 0 lf 1016,4 hPa 0,0 l/m 2 min 0 min 743 W/m 20,9 km/h (4 Bft)
01.06.2015 15:24 19,2 C 18,9 C 55 % 0 lf 1016,4 hPa 0,0 l/m 2 min 0 min 800 W/m 18,8 km/h (3 Bft)
01.06.2015 15:26 19,2 C 19,4 C 57 % 0 lf 1016,4 hPa 0,0 l/m 2 min 0 min 860 W/m 14,6 km/h (3 Bft)
01.06.2015 15:28 19,2 C 19,4 C 55 % 0 lf 1016,4 hPa 0,0 l/m 2 min 0 min 855 W/m 14,6 km/h (3 Bft)
01.06.2015 15:30 19,3 C 19,4 C 55 % 0 lf 1016,3 hPa 0,0 l/m 2 min 0 min 898 W/m 18,8 km/h (3 Bft)
01.06.2015 15:32 19,4 C 19,4 C 55 % 0 lf 1016,4 hPa 0,0 l/m 2 min 0 min 908 W/m 29,3 km/h (5 Bft)
01.06.2015 15:34 19,4 C 20,0 C 52 % 0 lf 1016,3 hPa 0,0 l/m 2 min 0 min 910 W/m 18,8 km/h (3 Bft)
01.06.2015 15:36 19,4 C 19,4 C 51 % 0 lf 1016,3 hPa 0,0 l/m 2 min 0 min 911 W/m 16,7 km/h (3 Bft)
01.06.2015 15:38 19,2 C 18,3 C 52 % 0 lf 1016,3 hPa 0,0 l/m 0 min 0 min 205 W/m 18,8 km/h (3 Bft)
01.06.2015 15:40 19,2 C 18,3 C 53 % 0 lf 1016,3 hPa 0,0 l/m 0 min 0 min 217 W/m 10,5 km/h (2 Bft)
01.06.2015 15:42 19,1 C 18,3 C 55 % 0 lf 1016,3 hPa 0,0 l/m 2 min 0 min 820 W/m 16,7 km/h (3 Bft)
01.06.2015 15:44 19,1 C 18,9 C 52 % 0 lf 1016,3 hPa 0,0 l/m 2 min 0 min 823 W/m 20,9 km/h (4 Bft)
01.06.2015 15:46 19,1 C 18,9 C 51 % 0 lf 1016,4 hPa 0,0 l/m 0 min 0 min 329 W/m 14,6 km/h (3 Bft)
01.06.2015 15:48 19,1 C 18,3 C 52 % 0 lf 1016,4 hPa 0,0 l/m 2 min 0 min 501 W/m 20,9 km/h (4 Bft)
01.06.2015 15:50 19,0 C 18,3 C 53 % 0 lf 1016,3 hPa 0,0 l/m 2 min 0 min 671 W/m 16,7 km/h (3 Bft)
01.06.2015 15:52 19,0 C 17,8 C 53 % 0 lf 1016,4 hPa 0,0 l/m 0 min 0 min 328 W/m 12,6 km/h (3 Bft)
01.06.2015 15:54 18,9 C 18,3 C 53 % 0 lf 1016,4 hPa 0,0 l/m 2 min 0 min 495 W/m 20,9 km/h (4 Bft)
01.06.2015 15:56 18,9 C 18,3 C 53 % 0 lf 1016,3 hPa 0,0 l/m 2 min 0 min 836 W/m 10,5 km/h (2 Bft)
01.06.2015 15:58 19,0 C 18,9 C 53 % 0 lf 1016,3 hPa 0,0 l/m 2 min 0 min 817 W/m 27,2 km/h (4 Bft)
01.06.2015 16:00 19,0 C 18,9 C 52 % 0 lf 1016,3 hPa 0,0 l/m 2 min 0 min 805 W/m 23,0 km/h (4 Bft)
01.06.2015 16:02 19,1 C 18,9 C 53 % 0 lf 1016,3 hPa 0,0 l/m 2 min 0 min 801 W/m 14,6 km/h (3 Bft)
01.06.2015 16:04 19,1 C 18,3 C 50 % 0 lf 1016,3 hPa 0,0 l/m 2 min 0 min 722 W/m 16,7 km/h (3 Bft)
01.06.2015 16:06 19,1 C 17,8 C 51 % 0 lf 1016,2 hPa 0,0 l/m 0 min 0 min 217 W/m 16,7 km/h (3 Bft)
01.06.2015 16:08 19,0 C 17,8 C 52 % 0 lf 1016,2 hPa 0,0 l/m 0 min 0 min 207 W/m 20,9 km/h (4 Bft)
01.06.2015 16:10 18,9 C 17,8 C 51 % 0 lf 1016,2 hPa 0,0 l/m 2 min 0 min 672 W/m 20,9 km/h (4 Bft)
01.06.2015 16:12 18,9 C 18,3 C 49 % 0 lf 1016,1 hPa 0,0 l/m 2 min 0 min 811 W/m 23,0 km/h (4 Bft)
01.06.2015 16:14 18,8 C 18,3 C 49 % 0 lf 1016,1 hPa 0,0 l/m 2 min 0 min 798 W/m 23,0 km/h (4 Bft)
01.06.2015 16:16 18,8 C 18,3 C 50 % 0 lf 1016,1 hPa 0,0 l/m 2 min 0 min 790 W/m 18,8 km/h (3 Bft)
01.06.2015 16:18 18,9 C 18,3 C 49 % 0 lf 1016,2 hPa 0,0 l/m 2 min 0 min 781 W/m 18,8 km/h (3 Bft)
01.06.2015 16:20 19,0 C 18,9 C 50 % 0 lf 1016,1 hPa 0,0 l/m 2 min 0 min 772 W/m 16,7 km/h (3 Bft)
01.06.2015 16:22 19,1 C 18,9 C 50 % 0 lf 1016,1 hPa 0,0 l/m 2 min 0 min 764 W/m 27,2 km/h (4 Bft)
01.06.2015 16:24 19,1 C 18,3 C 51 % 0 lf 1016,1 hPa 0,0 l/m 2 min 0 min 746 W/m 25,1 km/h (4 Bft)
01.06.2015 16:26 19,2 C 18,3 C 51 % 0 lf 1016,1 hPa 0,0 l/m 2 min 0 min 738 W/m 18,8 km/h (3 Bft)
01.06.2015 16:28 19,2 C 18,3 C 50 % 0 lf 1016,1 hPa 0,0 l/m 2 min 0 min 742 W/m 16,7 km/h (3 Bft)
01.06.2015 16:30 19,2 C 17,8 C 50 % 0 lf 1016,1 hPa 0,0 l/m 0 min 0 min 208 W/m 12,6 km/h (3 Bft)
01.06.2015 16:32 19,1 C 17,2 C 49 % 0 lf 1016,0 hPa 0,0 l/m 2 min 0 min 425 W/m 18,8 km/h (3 Bft)
01.06.2015 16:34 19,1 C 17,2 C 51 % 0 lf 1016,0 hPa 0,0 l/m 2 min 0 min 672 W/m 25,1 km/h (4 Bft)
01.06.2015 16:36 19,1 C 17,8 C 51 % 0 lf 1016,0 hPa 0,0 l/m 2 min 0 min 735 W/m 12,6 km/h (3 Bft)
01.06.2015 16:38 19,1 C 17,8 C 51 % 0 lf 1016,0 hPa 0,0 l/m 2 min 0 min 695 W/m 16,7 km/h (3 Bft)
01.06.2015 16:40 19,2 C 17,8 C 51 % 0 lf 1015,8 hPa 0,0 l/m 2 min 0 min 696 W/m 12,6 km/h (3 Bft)
01.06.2015 16:42 19,2 C 17,8 C 50 % 0 lf 1015,9 hPa 0,0 l/m 2 min 0 min 703 W/m 27,2 km/h (4 Bft)
01.06.2015 16:44 19,2 C 17,8 C 46 % 0 lf 1015,9 hPa 0,0 l/m 2 min 0 min 699 W/m 16,7 km/h (3 Bft)
01.06.2015 16:46 19,2 C 17,2 C 47 % 0 lf 1015,8 hPa 0,0 l/m 2 min 0 min 698 W/m 20,9 km/h (4 Bft)
01.06.2015 16:48 19,1 C 16,7 C 46 % 0 lf 1015,8 hPa 0,0 l/m 0 min 0 min 163 W/m 18,8 km/h (3 Bft)
01.06.2015 16:50 19,1 C 16,7 C 48 % 0 lf 1015,7 hPa 0,0 l/m 2 min 0 min 453 W/m 10,5 km/h (2 Bft)
01.06.2015 16:52 19,0 C 16,7 C 46 % 0 lf 1015,7 hPa 0,0 l/m 2 min 0 min 662 W/m 8,4 km/h (2 Bft)
01.06.2015 16:54 18,9 C 16,7 C 45 % 0 lf 1015,7 hPa 0,0 l/m 2 min 0 min 677 W/m 12,6 km/h (3 Bft)
01.06.2015 16:56 19,0 C 16,7 C 48 % 0 lf 1015,8 hPa 0,0 l/m 2 min 0 min 668 W/m 10,5 km/h (2 Bft)
01.06.2015 16:58 19,0 C 16,7 C 48 % 0 lf 1015,8 hPa 0,0 l/m 2 min 0 min 658 W/m 18,8 km/h (3 Bft)
01.06.2015 17:00 19,0 C 16,7 C 48 % 0 lf 1015,8 hPa 0,0 l/m 2 min 0 min 656 W/m 20,9 km/h (4 Bft)
01.06.2015 17:02 19,0 C 16,7 C 48 % 0 lf 1015,8 hPa 0,0 l/m 2 min 0 min 651 W/m 16,7 km/h (3 Bft)
01.06.2015 17:04 19,1 C 16,7 C 47 % 0 lf 1015,7 hPa 0,0 l/m 2 min 0 min 641 W/m 16,7 km/h (3 Bft)
01.06.2015 17:06 19,1 C 16,7 C 48 % 0 lf 1015,7 hPa 0,0 l/m 2 min 0 min 634 W/m 20,9 km/h (4 Bft)
01.06.2015 17:08 19,1 C 16,7 C 48 % 0 lf 1015,6 hPa 0,0 l/m 2 min 0 min 625 W/m 18,8 km/h (3 Bft)
01.06.2015 17:10 19,2 C 16,7 C 48 % 0 lf 1015,6 hPa 0,0 l/m 2 min 0 min 626 W/m 18,8 km/h (3 Bft)
01.06.2015 17:12 19,2 C 16,1 C 48 % 0 lf 1015,6 hPa 0,0 l/m 2 min 0 min 620 W/m 10,5 km/h (2 Bft)
01.06.2015 17:14 19,2 C 16,7 C 49 % 0 lf 1015,6 hPa 0,0 l/m 2 min 0 min 614 W/m 20,9 km/h (4 Bft)
01.06.2015 17:16 19,3 C 16,1 C 48 % 0 lf 1015,7 hPa 0,0 l/m 2 min 0 min 605 W/m 25,1 km/h (4 Bft)
01.06.2015 17:18 19,3 C 16,1 C 48 % 0 lf 1015,6 hPa 0,0 l/m 2 min 0 min 599 W/m 16,7 km/h (3 Bft)
01.06.2015 17:20 19,3 C 16,1 C 46 % 0 lf 1015,6 hPa 0,0 l/m 2 min 0 min 596 W/m 14,6 km/h (3 Bft)
01.06.2015 17:22 19,3 C 16,1 C 46 % 0 lf 1015,7 hPa 0,0 l/m 2 min 0 min 592 W/m 16,7 km/h (3 Bft)
01.06.2015 17:24 19,3 C 16,1 C 46 % 0 lf 1015,7 hPa 0,0 l/m 2 min 0 min 587 W/m 18,8 km/h (3 Bft)
01.06.2015 17:26 19,3 C 16,1 C 46 % 0 lf 1015,6 hPa 0,0 l/m 2 min 0 min 583 W/m 16,7 km/h (3 Bft)
01.06.2015 17:28 19,3 C 16,1 C 46 % 0 lf 1015,6 hPa 0,0 l/m 2 min 0 min 582 W/m 14,6 km/h (3 Bft)
01.06.2015 17:30 19,3 C 16,1 C 47 % 0 lf 1015,5 hPa 0,0 l/m 2 min 0 min 580 W/m 14,6 km/h (3 Bft)
01.06.2015 17:32 19,3 C 15,6 C 47 % 0 lf 1015,6 hPa 0,0 l/m 2 min 0 min 576 W/m 23,0 km/h (4 Bft)
01.06.2015 17:34 19,2 C 15,6 C 47 % 0 lf 1015,4 hPa 0,0 l/m 2 min 0 min 566 W/m 18,8 km/h (3 Bft)
01.06.2015 17:36 19,2 C 15,6 C 47 % 0 lf 1015,5 hPa 0,0 l/m 2 min 0 min 558 W/m 23,0 km/h (4 Bft)
01.06.2015 17:38 19,2 C 15,6 C 46 % 0 lf 1015,5 hPa 0,0 l/m 2 min 0 min 554 W/m 20,9 km/h (4 Bft)
01.06.2015 17:40 19,1 C 15,6 C 46 % 0 lf 1015,4 hPa 0,0 l/m 2 min 0 min 556 W/m 20,9 km/h (4 Bft)
01.06.2015 17:42 19,1 C 15,6 C 45 % 0 lf 1015,3 hPa 0,0 l/m 2 min 0 min 536 W/m 16,7 km/h (3 Bft)
01.06.2015 17:44 19,0 C 15,0 C 45 % 0 lf 1015,3 hPa 0,0 l/m 2 min 0 min 511 W/m 23,0 km/h (4 Bft)
01.06.2015 17:46 19,0 C 15,0 C 45 % 0 lf 1015,2 hPa 0,0 l/m 2 min 0 min 523 W/m 18,8 km/h (3 Bft)
01.06.2015 17:48 18,9 C 15,0 C 46 % 0 lf 1015,3 hPa 0,0 l/m 2 min 0 min 528 W/m 18,8 km/h (3 Bft)
01.06.2015 17:50 18,9 C 15,0 C 46 % 0 lf 1015,4 hPa 0,0 l/m 2 min 0 min 517 W/m 14,6 km/h (3 Bft)
01.06.2015 17:52 18,8 C 15,0 C 46 % 0 lf 1015,3 hPa 0,0 l/m 2 min 0 min 445 W/m 8,4 km/h (2 Bft)
01.06.2015 17:54 18,8 C 15,0 C 47 % 0 lf 1015,3 hPa 0,0 l/m 2 min 0 min 420 W/m 8,4 km/h (2 Bft)
01.06.2015 17:56 18,8 C 15,0 C 46 % 0 lf 1015,2 hPa 0,0 l/m 2 min 0 min 499 W/m 14,6 km/h (3 Bft)
01.06.2015 17:58 18,7 C 15,0 C 47 % 0 lf 1015,2 hPa 0,0 l/m 2 min 0 min 510 W/m 18,8 km/h (3 Bft)
01.06.2015 18:00 18,7 C 15,0 C 45 % 0 lf 1015,0 hPa 0,0 l/m 2 min 0 min 499 W/m 18,8 km/h (3 Bft)
01.06.2015 18:02 18,6 C 15,0 C 46 % 0 lf 1015,2 hPa 0,0 l/m 2 min 0 min 499 W/m 23,0 km/h (4 Bft)
01.06.2015 18:06 18,4 C 15,0 C 47 % 0 lf 1015,2 hPa 0,0 l/m 2 min 0 min 492 W/m 14,6 km/h (3 Bft)
01.06.2015 18:08 18,3 C 15,0 C 47 % 0 lf 1015,1 hPa 0,0 l/m 2 min 0 min 480 W/m 10,5 km/h (2 Bft)
01.06.2015 18:10 18,3 C 15,0 C 47 % 0 lf 1015,1 hPa 0,0 l/m 2 min 0 min 469 W/m 12,6 km/h (3 Bft)
01.06.2015 18:12 18,3 C 15,0 C 47 % 0 lf 1015,1 hPa 0,0 l/m 2 min 0 min 456 W/m 16,7 km/h (3 Bft)
01.06.2015 18:14 18,2 C 14,4 C 48 % 0 lf 1015,1 hPa 0,0 l/m 2 min 0 min 449 W/m 20,9 km/h (4 Bft)
01.06.2015 18:16 18,2 C 14,4 C 48 % 0 lf 1015,2 hPa 0,0 l/m 2 min 0 min 443 W/m 20,9 km/h (4 Bft)
01.06.2015 18:18 18,1 C 14,4 C 47 % 0 lf 1015,0 hPa 0,0 l/m 2 min 0 min 438 W/m 20,9 km/h (4 Bft)
01.06.2015 18:20 18,1 C 14,4 C 48 % 0 lf 1014,9 hPa 0,0 l/m 2 min 0 min 433 W/m 10,5 km/h (2 Bft)
01.06.2015 18:22 18,0 C 14,4 C 49 % 0 lf 1014,9 hPa 0,0 l/m 2 min 0 min 424 W/m 27,2 km/h (4 Bft)
01.06.2015 18:24 17,9 C 14,4 C 48 % 0 lf 1015,0 hPa 0,0 l/m 2 min 0 min 421 W/m 18,8 km/h (3 Bft)
01.06.2015 18:26 17,9 C 14,4 C 47 % 0 lf 1014,9 hPa 0,0 l/m 2 min 0 min 411 W/m 20,9 km/h (4 Bft)
01.06.2015 18:28 17,8 C 14,4 C 48 % 0 lf 1015,0 hPa 0,0 l/m 2 min 0 min 410 W/m 23,0 km/h (4 Bft)
01.06.2015 18:30 17,8 C 14,4 C 48 % 0 lf 1014,9 hPa 0,0 l/m 2 min 0 min 404 W/m 23,0 km/h (4 Bft)
01.06.2015 18:32 17,7 C 14,4 C 48 % 0 lf 1015,0 hPa 0,0 l/m 2 min 0 min 403 W/m 16,7 km/h (3 Bft)
01.06.2015 18:34 17,7 C 14,4 C 48 % 0 lf 1015,0 hPa 0,0 l/m 2 min 0 min 393 W/m 14,6 km/h (3 Bft)
01.06.2015 18:36 17,7 C 14,4 C 48 % 0 lf 1015,0 hPa 0,0 l/m 2 min 0 min 378 W/m 10,5 km/h (2 Bft)
01.06.2015 18:38 17,6 C 14,4 C 48 % 0 lf 1014,9 hPa 0,0 l/m 2 min 0 min 371 W/m 10,5 km/h (2 Bft)
01.06.2015 18:40 17,6 C 14,4 C 49 % 0 lf 1014,9 hPa 0,0 l/m 2 min 0 min 366 W/m 18,8 km/h (3 Bft)
01.06.2015 18:42 17,5 C 14,4 C 50 % 0 lf 1014,8 hPa 0,0 l/m 2 min 0 min 369 W/m 18,8 km/h (3 Bft)
01.06.2015 18:44 17,5 C 14,4 C 49 % 0 lf 1014,8 hPa 0,0 l/m 2 min 0 min 356 W/m 20,9 km/h (4 Bft)
01.06.2015 18:46 17,4 C 14,4 C 50 % 0 lf 1014,9 hPa 0,0 l/m 2 min 0 min 358 W/m 20,9 km/h (4 Bft)
01.06.2015 18:48 17,4 C 14,4 C 50 % 0 lf 1014,8 hPa 0,0 l/m 2 min 0 min 307 W/m 25,1 km/h (4 Bft)
01.06.2015 18:50 17,4 C 14,4 C 50 % 0 lf 1014,8 hPa 0,0 l/m 2 min 0 min 226 W/m 20,9 km/h (4 Bft)
01.06.2015 18:52 17,3 C 13,9 C 50 % 0 lf 1014,7 hPa 0,0 l/m 2 min 0 min 222 W/m 16,7 km/h (3 Bft)
01.06.2015 18:54 17,3 C 13,9 C 50 % 0 lf 1014,8 hPa 0,0 l/m 2 min 0 min 199 W/m 14,6 km/h (3 Bft)
01.06.2015 18:56 17,2 C 13,9 C 51 % 0 lf 1014,8 hPa 0,0 l/m 2 min 0 min 234 W/m 12,6 km/h (3 Bft)
01.06.2015 18:58 17,2 C 14,4 C 51 % 0 lf 1014,8 hPa 0,0 l/m 2 min 0 min 295 W/m 12,6 km/h (3 Bft)
01.06.2015 19:00 17,2 C 14,4 C 51 % 0 lf 1014,8 hPa 0,0 l/m 2 min 0 min 315 W/m 14,6 km/h (3 Bft)
01.06.2015 19:02 17,2 C 14,4 C 50 % 0 lf 1014,8 hPa 0,0 l/m 2 min 0 min 272 W/m 14,6 km/h (3 Bft)
01.06.2015 19:04 17,2 C 14,4 C 51 % 0 lf 1014,8 hPa 0,0 l/m 2 min 0 min 240 W/m 10,5 km/h (2 Bft)
01.06.2015 19:06 17,2 C 14,4 C 52 % 0 lf 1014,7 hPa 0,0 l/m 2 min 0 min 318 W/m 12,6 km/h (3 Bft)
01.06.2015 19:08 17,2 C 14,4 C 51 % 0 lf 1014,6 hPa 0,0 l/m 2 min 0 min 318 W/m 10,5 km/h (2 Bft)
01.06.2015 19:10 17,2 C 14,4 C 52 % 0 lf 1014,6 hPa 0,0 l/m 2 min 0 min 306 W/m 18,8 km/h (3 Bft)
01.06.2015 19:12 17,2 C 14,4 C 53 % 0 lf 1014,7 hPa 0,0 l/m 2 min 0 min 281 W/m 16,7 km/h (3 Bft)
01.06.2015 19:14 17,2 C 14,4 C 53 % 0 lf 1014,6 hPa 0,0 l/m 2 min 0 min 294 W/m 10,5 km/h (2 Bft)
01.06.2015 19:16 17,2 C 14,4 C 52 % 0 lf 1014,6 hPa 0,0 l/m 2 min 0 min 232 W/m 18,8 km/h (3 Bft)
01.06.2015 19:18 17,2 C 14,4 C 52 % 0 lf 1014,6 hPa 0,0 l/m 2 min 0 min 234 W/m 18,8 km/h (3 Bft)
01.06.2015 19:20 17,2 C 14,4 C 52 % 0 lf 1014,6 hPa 0,0 l/m 0 min 0 min 145 W/m 16,7 km/h (3 Bft)
01.06.2015 19:22 17,2 C 14,4 C 52 % 0 lf 1014,6 hPa 0,0 l/m 2 min 0 min 180 W/m 12,6 km/h (3 Bft)
01.06.2015 19:24 17,2 C 14,4 C 52 % 0 lf 1014,6 hPa 0,0 l/m 2 min 0 min 194 W/m 14,6 km/h (3 Bft)
01.06.2015 19:26 17,2 C 14,4 C 52 % 0 lf 1014,5 hPa 0,0 l/m 0 min 0 min 132 W/m 16,7 km/h (3 Bft)
01.06.2015 19:28 17,1 C 14,4 C 52 % 0 lf 1014,5 hPa 0,0 l/m 0 min 0 min 136 W/m 14,6 km/h (3 Bft)
01.06.2015 19:30 17,1 C 14,4 C 52 % 0 lf 1014,4 hPa 0,0 l/m 0 min 0 min 132 W/m 10,5 km/h (2 Bft)
01.06.2015 19:32 17,1 C 14,4 C 52 % 0 lf 1014,4 hPa 0,0 l/m 0 min 0 min 95 W/m 10,5 km/h (2 Bft)
01.06.2015 19:34 17,1 C 14,4 C 53 % 0 lf 1014,4 hPa 0,0 l/m 0 min 0 min 79 W/m 8,4 km/h (2 Bft)
01.06.2015 19:36 17,1 C 13,9 C 53 % 0 lf 1014,4 hPa 0,0 l/m 0 min 0 min 76 W/m 16,7 km/h (3 Bft)
01.06.2015 19:38 17,0 C 13,9 C 53 % 0 lf 1014,4 hPa 0,0 l/m 0 min 0 min 68 W/m 10,5 km/h (2 Bft)
01.06.2015 19:40 16,9 C 13,9 C 54 % 0 lf 1014,4 hPa 0,0 l/m 0 min 0 min 69 W/m 8,4 km/h (2 Bft)
01.06.2015 19:42 16,9 C 13,9 C 54 % 0 lf 1014,4 hPa 0,0 l/m 0 min 0 min 69 W/m 8,4 km/h (2 Bft)
01.06.2015 19:44 16,9 C 13,9 C 54 % 0 lf 1014,4 hPa 0,0 l/m 0 min 0 min 69 W/m 14,6 km/h (3 Bft)
01.06.2015 19:46 16,9 C 13,9 C 54 % 0 lf 1014,4 hPa 0,0 l/m 0 min 0 min 71 W/m 6,3 km/h (2 Bft)
01.06.2015 19:48 16,8 C 13,9 C 54 % 0 lf 1014,4 hPa 0,0 l/m 0 min 0 min 61 W/m 4,2 km/h (1 Bft)
01.06.2015 19:50 16,8 C 13,9 C 54 % 0 lf 1014,4 hPa 0,0 l/m 0 min 0 min 55 W/m 6,3 km/h (2 Bft)
01.06.2015 19:52 16,8 C 13,9 C 54 % 0 lf 1014,4 hPa 0,0 l/m 0 min 0 min 53 W/m 8,4 km/h (2 Bft)
01.06.2015 19:54 16,7 C 13,9 C 55 % 0 lf 1014,4 hPa 0,0 l/m 0 min 0 min 52 W/m 8,4 km/h (2 Bft)
01.06.2015 19:56 16,7 C 13,9 C 56 % 0 lf 1014,4 hPa 0,0 l/m 0 min 0 min 52 W/m 14,6 km/h (3 Bft)
01.06.2015 19:58 16,7 C 13,9 C 55 % 0 lf 1014,4 hPa 0,0 l/m 0 min 0 min 51 W/m 14,6 km/h (3 Bft)
01.06.2015 20:00 16,6 C 13,9 C 55 % 0 lf 1014,3 hPa 0,0 l/m 0 min 0 min 49 W/m 10,5 km/h (2 Bft)
01.06.2015 20:02 16,6 C 13,9 C 54 % 0 lf 1014,3 hPa 0,0 l/m 0 min 0 min 49 W/m 8,4 km/h (2 Bft)
01.06.2015 20:04 16,6 C 13,9 C 55 % 0 lf 1014,4 hPa 0,0 l/m 0 min 0 min 46 W/m 2,1 km/h (1 Bft)
01.06.2015 20:06 16,6 C 13,9 C 55 % 0 lf 1014,3 hPa 0,0 l/m 0 min 0 min 45 W/m 6,3 km/h (2 Bft)
01.06.2015 20:08 16,5 C 13,9 C 55 % 0 lf 1014,3 hPa 0,0 l/m 0 min 0 min 44 W/m 8,4 km/h (2 Bft)
01.06.2015 20:10 16,5 C 13,9 C 56 % 0 lf 1014,3 hPa 0,0 l/m 0 min 0 min 47 W/m 6,3 km/h (2 Bft)
01.06.2015 20:12 16,5 C 13,9 C 56 % 0 lf 1014,3 hPa 0,0 l/m 0 min 0 min 53 W/m 6,3 km/h (2 Bft)
01.06.2015 20:14 16,5 C 13,9 C 56 % 0 lf 1014,3 hPa 0,0 l/m 0 min 0 min 54 W/m 8,4 km/h (2 Bft)
01.06.2015 20:16 16,4 C 13,9 C 56 % 0 lf 1014,3 hPa 0,0 l/m 0 min 0 min 54 W/m 6,3 km/h (2 Bft)
01.06.2015 20:18 16,4 C 13,9 C 56 % 0 lf 1014,3 hPa 0,0 l/m 0 min 0 min 54 W/m 6,3 km/h (2 Bft)
01.06.2015 20:20 16,4 C 13,9 C 56 % 0 lf 1014,3 hPa 0,0 l/m 0 min 0 min 52 W/m 6,3 km/h (2 Bft)
01.06.2015 20:22 16,4 C 13,9 C 57 % 0 lf 1014,2 hPa 0,0 l/m 0 min 0 min 47 W/m 6,3 km/h (2 Bft)
01.06.2015 20:24 16,4 C 13,9 C 57 % 0 lf 1014,2 hPa 0,0 l/m 0 min 0 min 43 W/m 6,3 km/h (2 Bft)
01.06.2015 20:26 16,4 C 13,9 C 57 % 0 lf 1014,2 hPa 0,0 l/m 0 min 0 min 39 W/m 4,2 km/h (1 Bft)
01.06.2015 20:28 16,4 C 13,9 C 57 % 0 lf 1014,2 hPa 0,0 l/m 0 min 0 min 35 W/m 6,3 km/h (2 Bft)
01.06.2015 20:30 16,3 C 13,9 C 57 % 0 lf 1014,2 hPa 0,0 l/m 0 min 0 min 33 W/m 4,2 km/h (1 Bft)
01.06.2015 20:32 16,3 C 13,9 C 57 % 0 lf 1014,1 hPa 0,0 l/m 0 min 0 min 32 W/m 6,3 km/h (2 Bft)
01.06.2015 20:34 16,3 C 13,9 C 57 % 0 lf 1014,1 hPa 0,0 l/m 0 min 0 min 30 W/m 6,3 km/h (2 Bft)
01.06.2015 20:36 16,3 C 13,9 C 57 % 0 lf 1014,1 hPa 0,0 l/m 0 min 0 min 30 W/m 6,3 km/h (2 Bft)
01.06.2015 20:38 16,3 C 13,9 C 57 % 0 lf 1014,0 hPa 0,0 l/m 0 min 0 min 30 W/m 6,3 km/h (2 Bft)
01.06.2015 20:40 16,3 C 13,9 C 57 % 0 lf 1014,1 hPa 0,0 l/m 0 min 0 min 30 W/m 6,3 km/h (2 Bft)
01.06.2015 20:42 16,2 C 13,3 C 57 % 0 lf 1014,0 hPa 0,0 l/m 0 min 0 min 30 W/m 6,3 km/h (2 Bft)
01.06.2015 20:44 16,2 C 13,3 C 57 % 0 lf 1014,0 hPa 0,0 l/m 0 min 0 min 29 W/m 6,3 km/h (2 Bft)
01.06.2015 20:46 16,2 C 13,3 C 57 % 0 lf 1014,0 hPa 0,0 l/m 0 min 0 min 26 W/m 4,2 km/h (1 Bft)
01.06.2015 20:48 16,2 C 13,3 C 57 % 0 lf 1014,0 hPa 0,0 l/m 0 min 0 min 24 W/m 4,2 km/h (1 Bft)
01.06.2015 20:50 16,2 C 13,3 C 58 % 0 lf 1014,0 hPa 0,0 l/m 0 min 0 min 20 W/m 6,3 km/h (2 Bft)
01.06.2015 20:52 16,2 C 13,3 C 57 % 0 lf 1013,9 hPa 0,0 l/m 0 min 0 min 19 W/m 4,2 km/h (1 Bft)
01.06.2015 20:54 16,1 C 13,3 C 57 % 0 lf 1014,0 hPa 0,0 l/m 0 min 0 min 17 W/m 6,3 km/h (2 Bft)
01.06.2015 20:56 16,1 C 13,3 C 57 % 0 lf 1014,0 hPa 0,0 l/m 0 min 0 min 16 W/m 6,3 km/h (2 Bft)
01.06.2015 20:58 16,1 C 13,3 C 57 % 0 lf 1014,0 hPa 0,0 l/m 0 min 0 min 16 W/m 4,2 km/h (1 Bft)
01.06.2015 21:00 16,1 C 13,3 C 57 % 0 lf 1014,0 hPa 0,0 l/m 0 min 0 min 16 W/m 6,3 km/h (2 Bft)
01.06.2015 21:02 16,0 C 13,3 C 57 % 0 lf 1014,0 hPa 0,0 l/m 0 min 0 min 15 W/m 8,4 km/h (2 Bft)
01.06.2015 21:04 16,0 C 13,3 C 57 % 0 lf 1014,0 hPa 0,0 l/m 0 min 0 min 14 W/m 6,3 km/h (2 Bft)
01.06.2015 21:06 16,0 C 13,3 C 58 % 0 lf 1014,0 hPa 0,0 l/m 0 min 0 min 14 W/m 6,3 km/h (2 Bft)
01.06.2015 21:08 15,9 C 13,3 C 58 % 0 lf 1013,9 hPa 0,0 l/m 0 min 0 min 12 W/m 4,2 km/h (1 Bft)
01.06.2015 21:10 15,9 C 13,3 C 58 % 0 lf 1013,9 hPa 0,0 l/m 0 min 0 min 12 W/m 6,3 km/h (2 Bft)
01.06.2015 21:12 15,9 C 13,3 C 58 % 0 lf 1013,9 hPa 0,0 l/m 0 min 0 min 11 W/m 2,1 km/h (1 Bft)
01.06.2015 21:14 15,9 C 13,3 C 58 % 0 lf 1013,9 hPa 0,0 l/m 0 min 0 min 11 W/m 4,2 km/h (1 Bft)
01.06.2015 21:16 15,9 C 12,8 C 58 % 0 lf 1013,9 hPa 0,0 l/m 0 min 0 min 11 W/m 4,2 km/h (1 Bft)
01.06.2015 21:18 15,8 C 12,8 C 58 % 0 lf 1013,9 hPa 0,0 l/m 0 min 0 min 10 W/m 6,3 km/h (2 Bft)
01.06.2015 21:20 15,8 C 12,8 C 58 % 0 lf 1013,9 hPa 0,0 l/m 0 min 0 min 9 W/m 4,2 km/h (1 Bft)
01.06.2015 21:22 15,8 C 12,8 C 58 % 0 lf 1013,9 hPa 0,0 l/m 0 min 0 min 9 W/m 4,2 km/h (1 Bft)
01.06.2015 21:24 15,8 C 12,8 C 58 % 0 lf 1014,0 hPa 0,0 l/m 0 min 0 min 8 W/m 4,2 km/h (1 Bft)
01.06.2015 21:26 15,7 C 12,8 C 58 % 0 lf 1014,0 hPa 0,0 l/m 0 min 0 min 7 W/m 6,3 km/h (2 Bft)
01.06.2015 21:28 15,7 C 12,8 C 59 % 0 lf 1013,9 hPa 0,0 l/m 0 min 0 min 7 W/m 4,2 km/h (1 Bft)
01.06.2015 21:30 15,7 C 12,8 C 59 % 0 lf 1013,9 hPa 0,0 l/m 0 min 0 min 7 W/m 4,2 km/h (1 Bft)
01.06.2015 21:32 15,7 C 12,8 C 59 % 0 lf 1013,9 hPa 0,0 l/m 0 min 0 min 6 W/m 4,2 km/h (1 Bft)
01.06.2015 21:34 15,6 C 12,8 C 59 % 0 lf 1013,9 hPa 0,0 l/m 0 min 0 min 5 W/m 4,2 km/h (1 Bft)
01.06.2015 21:36 15,6 C 12,8 C 59 % 0 lf 1013,8 hPa 0,0 l/m 0 min 0 min 5 W/m 6,3 km/h (2 Bft)
01.06.2015 21:38 15,6 C 12,8 C 59 % 0 lf 1013,9 hPa 0,0 l/m 0 min 0 min 3 W/m 6,3 km/h (2 Bft)
01.06.2015 21:40 15,5 C 12,8 C 59 % 0 lf 1013,9 hPa 0,0 l/m 0 min 0 min 0 W/m 6,3 km/h (2 Bft)
01.06.2015 21:42 15,5 C 12,8 C 59 % 0 lf 1013,8 hPa 0,0 l/m 0 min 0 min 0 W/m 6,3 km/h (2 Bft)
01.06.2015 21:44 15,5 C 12,2 C 60 % 0 lf 1013,7 hPa 0,0 l/m 0 min 0 min 0 W/m 6,3 km/h (2 Bft)
01.06.2015 21:46 15,4 C 12,2 C 60 % 0 lf 1013,7 hPa 0,0 l/m 0 min 0 min 0 W/m 6,3 km/h (2 Bft)
01.06.2015 21:48 15,4 C 12,2 C 60 % 0 lf 1013,8 hPa 0,0 l/m 0 min 0 min 0 W/m 4,2 km/h (1 Bft)
01.06.2015 21:50 15,4 C 12,2 C 61 % 0 lf 1013,8 hPa 0,0 l/m 0 min 0 min 0 W/m 8,4 km/h (2 Bft)
01.06.2015 21:52 15,4 C 12,2 C 61 % 0 lf 1013,8 hPa 0,0 l/m 0 min 0 min 0 W/m 6,3 km/h (2 Bft)
01.06.2015 21:54 15,3 C 12,2 C 61 % 0 lf 1013,8 hPa 0,0 l/m 0 min 0 min 0 W/m 4,2 km/h (1 Bft)
01.06.2015 21:56 15,3 C 12,2 C 61 % 0 lf 1013,8 hPa 0,0 l/m 0 min 0 min 0 W/m 6,3 km/h (2 Bft)
01.06.2015 21:58 15,3 C 12,2 C 61 % 0 lf 1013,9 hPa 0,0 l/m 0 min 0 min 0 W/m 4,2 km/h (1 Bft)
01.06.2015 22:00 15,2 C 12,2 C 62 % 0 lf 1013,9 hPa 0,0 l/m 0 min 0 min 0 W/m 4,2 km/h (1 Bft)
01.06.2015 22:02 15,2 C 12,2 C 62 % 0 lf 1013,9 hPa 0,0 l/m 0 min 0 min 0 W/m 6,3 km/h (2 Bft)
01.06.2015 22:04 15,2 C 12,2 C 62 % 0 lf 1013,9 hPa 0,0 l/m 0 min 0 min 0 W/m 4,2 km/h (1 Bft)
01.06.2015 22:06 15,1 C 12,2 C 62 % 0 lf 1013,8 hPa 0,0 l/m 0 min 0 min 0 W/m 4,2 km/h (1 Bft)
01.06.2015 22:08 15,1 C 12,2 C 62 % 0 lf 1013,8 hPa 0,0 l/m 0 min 0 min 0 W/m 6,3 km/h (2 Bft)
01.06.2015 22:10 15,1 C 12,2 C 63 % 0 lf 1013,8 hPa 0,0 l/m 0 min 0 min 0 W/m 4,2 km/h (1 Bft)
01.06.2015 22:12 15,0 C 12,2 C 64 % 0 lf 1013,7 hPa 0,0 l/m 0 min 0 min 0 W/m 8,4 km/h (2 Bft)
01.06.2015 22:14 15,0 C 12,2 C 64 % 0 lf 1013,7 hPa 0,0 l/m 0 min 0 min 0 W/m 8,4 km/h (2 Bft)
01.06.2015 22:16 14,9 C 12,2 C 64 % 0 lf 1013,7 hPa 0,0 l/m 0 min 0 min 0 W/m 4,2 km/h (1 Bft)
01.06.2015 22:18 14,9 C 12,2 C 64 % 0 lf 1013,8 hPa 0,0 l/m 0 min 0 min 0 W/m 4,2 km/h (1 Bft)
01.06.2015 22:20 14,8 C 12,2 C 64 % 0 lf 1013,8 hPa 0,0 l/m 0 min 0 min 0 W/m 4,2 km/h (1 Bft)
01.06.2015 22:22 14,8 C 12,2 C 64 % 0 lf 1013,8 hPa 0,0 l/m 0 min 0 min 0 W/m 4,2 km/h (1 Bft)
01.06.2015 22:24 14,8 C 12,2 C 64 % 0 lf 1013,9 hPa 0,0 l/m 0 min 0 min 0 W/m 4,2 km/h (1 Bft)
01.06.2015 22:26 14,7 C 12,2 C 64 % 0 lf 1013,8 hPa 0,0 l/m 0 min 0 min 0 W/m 4,2 km/h (1 Bft)
01.06.2015 22:28 14,7 C 12,2 C 64 % 0 lf 1013,9 hPa 0,0 l/m 0 min 0 min 0 W/m 6,3 km/h (2 Bft)
01.06.2015 22:30 14,7 C 12,2 C 64 % 0 lf 1013,9 hPa 0,0 l/m 0 min 0 min 0 W/m 4,2 km/h (1 Bft)
01.06.2015 22:32 14,6 C 12,2 C 64 % 0 lf 1013,8 hPa 0,0 l/m 0 min 0 min 0 W/m 6,3 km/h (2 Bft)
01.06.2015 22:34 14,6 C 12,2 C 65 % 0 lf 1013,8 hPa 0,0 l/m 0 min 0 min 0 W/m 6,3 km/h (2 Bft)
01.06.2015 22:36 14,6 C 12,2 C 65 % 0 lf 1013,7 hPa 0,0 l/m 0 min 0 min 0 W/m 6,3 km/h (2 Bft)
01.06.2015 22:38 14,6 C 12,2 C 65 % 0 lf 1013,8 hPa 0,0 l/m 0 min 0 min 0 W/m 6,3 km/h (2 Bft)
01.06.2015 22:40 14,5 C 12,2 C 64 % 0 lf 1013,7 hPa 0,0 l/m 0 min 0 min 0 W/m 8,4 km/h (2 Bft)
01.06.2015 22:42 14,4 C 12,2 C 64 % 0 lf 1013,7 hPa 0,0 l/m 0 min 0 min 0 W/m 6,3 km/h (2 Bft)
01.06.2015 22:44 14,4 C 12,2 C 64 % 0 lf 1013,7 hPa 0,0 l/m 0 min 0 min 0 W/m 6,3 km/h (2 Bft)
01.06.2015 22:46 14,4 C 12,2 C 64 % 0 lf 1013,7 hPa 0,0 l/m 0 min 0 min 0 W/m 6,3 km/h (2 Bft)
01.06.2015 22:48 14,3 C 12,2 C 64 % 0 lf 1013,7 hPa 0,0 l/m 0 min 0 min 0 W/m 8,4 km/h (2 Bft)
01.06.2015 22:50 14,3 C 12,2 C 64 % 0 lf 1013,7 hPa 0,0 l/m 0 min 0 min 0 W/m 10,5 km/h (2 Bft)
01.06.2015 22:52 14,3 C 12,2 C 63 % 0 lf 1013,7 hPa 0,0 l/m 0 min 0 min 0 W/m 12,6 km/h (3 Bft)
01.06.2015 22:54 14,3 C 12,2 C 64 % 0 lf 1013,7 hPa 0,0 l/m 0 min 0 min 0 W/m 8,4 km/h (2 Bft)
01.06.2015 22:56 14,3 C 12,2 C 64 % 0 lf 1013,7 hPa 0,0 l/m 0 min 0 min 0 W/m 10,5 km/h (2 Bft)
01.06.2015 22:58 14,3 C 12,2 C 64 % 0 lf 1013,6 hPa 0,0 l/m 0 min 0 min 0 W/m 8,4 km/h (2 Bft)
01.06.2015 23:00 14,2 C 12,2 C 64 % 0 lf 1013,6 hPa 0,0 l/m 0 min 0 min 0 W/m 10,5 km/h (2 Bft)
01.06.2015 23:02 14,2 C 12,2 C 64 % 0 lf 1013,5 hPa 0,0 l/m 0 min 0 min 0 W/m 12,6 km/h (3 Bft)
01.06.2015 23:04 14,2 C 12,2 C 64 % 0 lf 1013,5 hPa 0,0 l/m 0 min 0 min 0 W/m 10,5 km/h (2 Bft)
01.06.2015 23:06 14,2 C 12,2 C 64 % 0 lf 1013,5 hPa 0,0 l/m 0 min 0 min 0 W/m 16,7 km/h (3 Bft)
01.06.2015 23:08 14,2 C 12,2 C 64 % 0 lf 1013,5 hPa 0,0 l/m 0 min 0 min 0 W/m 16,7 km/h (3 Bft)
01.06.2015 23:10 14,2 C 12,2 C 64 % 0 lf 1013,6 hPa 0,0 l/m 0 min 0 min 0 W/m 10,5 km/h (2 Bft)
01.06.2015 23:12 14,2 C 12,2 C 64 % 0 lf 1013,5 hPa 0,0 l/m 0 min 0 min 0 W/m 14,6 km/h (3 Bft)
01.06.2015 23:14 14,2 C 12,2 C 64 % 0 lf 1013,5 hPa 0,0 l/m 0 min 0 min 0 W/m 16,7 km/h (3 Bft)
01.06.2015 23:16 14,2 C 12,2 C 64 % 0 lf 1013,5 hPa 0,0 l/m 0 min 0 min 0 W/m 12,6 km/h (3 Bft)
01.06.2015 23:18 14,2 C 12,2 C 64 % 0 lf 1013,4 hPa 0,0 l/m 0 min 0 min 0 W/m 10,5 km/h (2 Bft)
01.06.2015 23:20 14,2 C 12,2 C 64 % 0 lf 1013,4 hPa 0,0 l/m 0 min 0 min 0 W/m 14,6 km/h (3 Bft)
01.06.2015 23:22 14,2 C 12,2 C 64 % 0 lf 1013,4 hPa 0,0 l/m 0 min 0 min 0 W/m 12,6 km/h (3 Bft)
01.06.2015 23:24 14,2 C 12,2 C 64 % 0 lf 1013,4 hPa 0,0 l/m 0 min 0 min 0 W/m 10,5 km/h (2 Bft)
01.06.2015 23:26 14,2 C 12,2 C 64 % 0 lf 1013,3 hPa 0,0 l/m 0 min 0 min 0 W/m 12,6 km/h (3 Bft)
01.06.2015 23:28 14,2 C 11,7 C 64 % 0 lf 1013,4 hPa 0,0 l/m 0 min 0 min 0 W/m 8,4 km/h (2 Bft)
01.06.2015 23:30 14,2 C 11,7 C 64 % 0 lf 1013,3 hPa 0,0 l/m 0 min 0 min 0 W/m 10,5 km/h (2 Bft)
01.06.2015 23:32 14,2 C 11,7 C 64 % 0 lf 1013,3 hPa 0,0 l/m 0 min 0 min 0 W/m 10,5 km/h (2 Bft)
01.06.2015 23:34 14,2 C 11,7 C 64 % 0 lf 1013,3 hPa 0,0 l/m 0 min 0 min 0 W/m 10,5 km/h (2 Bft)
01.06.2015 23:36 14,2 C 11,7 C 65 % 0 lf 1013,3 hPa 0,0 l/m 0 min 0 min 0 W/m 10,5 km/h (2 Bft)
01.06.2015 23:38 14,2 C 11,7 C 65 % 0 lf 1013,2 hPa 0,0 l/m 0 min 0 min 0 W/m 8,4 km/h (2 Bft)
01.06.2015 23:40 14,2 C 11,7 C 65 % 0 lf 1013,2 hPa 0,0 l/m 0 min 0 min 0 W/m 8,4 km/h (2 Bft)
01.06.2015 23:42 14,2 C 11,7 C 65 % 0 lf 1013,2 hPa 0,0 l/m 0 min 0 min 0 W/m 10,5 km/h (2 Bft)
01.06.2015 23:44 14,2 C 11,7 C 66 % 0 lf 1013,3 hPa 0,0 l/m 0 min 0 min 0 W/m 12,6 km/h (3 Bft)
01.06.2015 23:46 14,1 C 11,7 C 66 % 0 lf 1013,3 hPa 0,0 l/m 0 min 0 min 0 W/m 10,5 km/h (2 Bft)
01.06.2015 23:48 14,1 C 11,7 C 66 % 0 lf 1013,2 hPa 0,0 l/m 0 min 0 min 0 W/m 8,4 km/h (2 Bft)
01.06.2015 23:50 14,0 C 11,7 C 66 % 0 lf 1013,2 hPa 0,0 l/m 0 min 0 min 0 W/m 12,6 km/h (3 Bft)
01.06.2015 23:52 13,9 C 11,7 C 66 % 0 lf 1013,2 hPa 0,0 l/m 0 min 0 min 0 W/m 10,5 km/h (2 Bft)
01.06.2015 23:54 13,9 C 11,7 C 66 % 0 lf 1013,2 hPa 0,0 l/m 0 min 0 min 0 W/m 10,5 km/h (2 Bft)
01.06.2015 23:56 13,9 C 11,7 C 66 % 0 lf 1013,2 hPa 0,0 l/m 0 min 0 min 0 W/m 14,6 km/h (3 Bft)
01.06.2015 23:58 13,8 C 11,7 C 66 % 0 lf 1013,3 hPa 0,0 l/m 0 min 0 min 0 W/m 14,6 km/h (3 Bft)
_ Min-Zeit 05:42 04:40 16:54 08:28 00:00 - - - - 03:26
Minimum _ 9,5 C 9,4 C 45 % 0 lf 1009,3 hPa - - - - 2,1 km/h (1 Bft)
_ Max-Zeit 15:32 14:46 07:58 00:00 12:58 00:08 06:08 00:00 14:16 00:40
Maximum _ 19,4 C 20,6 C 97 % 15 lf 1016,7 hPa 0,2 l/m 2 min 2 min 1033 W/m 41,8 km/h
W (6 Bft)
Durchschnitt _ 14,6 C 13,3 C 74 % 5 lf 1014,6 hPa #1,2 l/m #10:00 h #2:13 h 374 W/m 12,3 km/h (3 Bft)
© 2015 W. Hausmann